Time,TemperatureF,DewpointF,PressureIn,WindDirection,WindDirectionDegrees,WindSpeedMPH,WindSpeedGustMPH,Humidity,HourlyPrecipIn,Conditions,Clouds,dailyrainin,SoftwareType,DateUTC
2013-04-24 00:00:00,61.3,40.9,29.96,SSE,158,0.0,0.0,47,0.00,,---,0.00,VWS V14.01,2013-04-24 04:00:00,
2013-04-24 00:01:00,61.3,40.9,29.96,SSE,158,0.0,0.0,47,0.00,,---,0.00,VWS V14.01,2013-04-24 04:01:00,
2013-04-24 00:02:00,61.3,40.9,29.96,SSE,158,0.0,0.0,47,0.00,,---,0.00,VWS V14.01,2013-04-24 04:02:00,
2013-04-24 00:06:00,60.9,40.5,29.96,SSE,158,0.0,0.0,47,0.00,,---,0.00,VWS V14.01,2013-04-24 04:06:00,
2013-04-24 00:07:00,60.9,40.5,29.96,SSE,158,0.0,0.0,47,0.00,,---,0.00,VWS V14.01,2013-04-24 04:07:00,
2013-04-24 00:11:00,60.7,40.9,29.96,SSE,158,0.0,0.0,48,0.00,,---,0.00,VWS V14.01,2013-04-24 04:11:00,
2013-04-24 00:12:00,60.7,40.9,29.96,SSE,158,0.0,0.0,48,0.00,,---,0.00,VWS V14.01,2013-04-24 04:12:00,
2013-04-24 00:16:00,60.2,40.5,29.96,SSE,158,0.0,0.0,48,0.00,,---,0.00,VWS V14.01,2013-04-24 04:16:00,
2013-04-24 00:17:00,60.2,40.5,29.96,SSE,158,0.0,0.0,48,0.00,,---,0.00,VWS V14.01,2013-04-24 04:17:00,
2013-04-24 00:18:00,60.2,41.0,29.96,SSE,158,0.0,0.0,49,0.00,,---,0.00,VWS V14.01,2013-04-24 04:18:00,
2013-04-24 00:22:00,60.0,40.8,29.96,SSE,158,0.0,0.0,49,0.00,,---,0.00,VWS V14.01,2013-04-24 04:22:00,
2013-04-24 00:23:00,60.0,41.3,29.96,SSE,158,0.0,0.0,50,0.00,,---,0.00,VWS V14.01,2013-04-24 04:23:00,
2013-04-24 00:27:00,59.8,41.1,29.96,SSE,158,0.0,0.0,50,0.00,,---,0.00,VWS V14.01,2013-04-24 04:27:00,
2013-04-24 00:28:00,59.8,41.1,29.96,SSE,158,0.0,0.0,50,0.00,,---,0.00,VWS V14.01,2013-04-24 04:28:00,
2013-04-24 00:32:00,59.8,41.1,29.96,SSE,158,0.0,0.0,50,0.00,,---,0.00,VWS V14.01,2013-04-24 04:32:00,
2013-04-24 00:34:00,59.8,41.1,29.96,SSE,158,0.0,0.0,50,0.00,,---,0.00,VWS V14.01,2013-04-24 04:34:00,
2013-04-24 00:38:00,59.8,41.1,29.96,SSE,158,0.0,0.0,50,0.00,,---,0.00,VWS V14.01,2013-04-24 04:38:00,
2013-04-24 00:39:00,59.7,41.0,29.96,SSE,158,0.0,0.0,50,0.00,,---,0.00,VWS V14.01,2013-04-24 04:39:00,
2013-04-24 00:40:00,59.8,41.1,29.96,SSE,158,0.0,0.0,50,0.00,,---,0.00,VWS V14.01,2013-04-24 04:40:00,
2013-04-24 00:43:00,60.0,41.3,29.96,SSE,158,0.0,0.0,50,0.00,,---,0.00,VWS V14.01,2013-04-24 04:43:00,
2013-04-24 00:44:00,60.0,41.3,29.96,SSE,158,0.0,0.0,50,0.00,,---,0.00,VWS V14.01,2013-04-24 04:44:00,
2013-04-24 00:45:00,60.0,41.3,29.96,SSE,158,0.0,0.0,50,0.00,,---,0.00,VWS V14.01,2013-04-24 04:45:00,
2013-04-24 00:48:00,60.0,41.3,29.96,SSE,158,0.0,0.0,50,0.00,,---,0.00,VWS V14.01,2013-04-24 04:48:00,
2013-04-24 00:49:00,59.8,41.1,29.96,SSE,158,0.0,0.0,50,0.00,,---,0.00,VWS V14.01,2013-04-24 04:49:00,
2013-04-24 00:50:00,59.8,41.1,29.96,SSE,158,0.0,0.0,50,0.00,,---,0.00,VWS V14.01,2013-04-24 04:50:00,
2013-04-24 00:51:00,59.8,40.6,29.96,SSE,158,0.0,0.0,49,0.00,,---,0.00,VWS V14.01,2013-04-24 04:51:00,
2013-04-24 00:53:00,60.0,40.8,29.96,SSE,158,0.0,0.0,49,0.00,,---,0.00,VWS V14.01,2013-04-24 04:53:00,
2013-04-24 00:54:00,60.0,40.8,29.96,SSE,158,0.0,0.0,49,0.00,,---,0.00,VWS V14.01,2013-04-24 04:54:00,
2013-04-24 00:57:00,59.8,40.6,29.97,SSE,158,0.0,0.0,49,0.00,,---,0.00,VWS V14.01,2013-04-24 04:57:00,
2013-04-24 00:59:00,59.7,40.5,29.97,SSE,158,0.0,0.0,49,0.00,,---,0.00,VWS V14.01,2013-04-24 04:59:00,
2013-04-24 01:02:00,59.8,40.6,29.97,SSE,158,0.0,0.0,49,0.00,,---,0.00,VWS V14.01,2013-04-24 05:02:00,
2013-04-24 01:04:00,59.8,40.6,29.97,SSE,158,0.0,0.0,49,0.00,,---,0.00,VWS V14.01,2013-04-24 05:04:00,
2013-04-24 01:08:00,59.8,40.6,29.97,SSE,158,0.0,0.0,49,0.00,,---,0.00,VWS V14.01,2013-04-24 05:08:00,
2013-04-24 01:09:00,59.8,40.6,29.97,SSE,158,0.0,0.0,49,0.00,,---,0.00,VWS V14.01,2013-04-24 05:09:00,
2013-04-24 01:10:00,59.8,40.6,29.97,SSE,158,0.0,0.0,49,0.00,,---,0.00,VWS V14.01,2013-04-24 05:10:00,
2013-04-24 01:13:00,59.7,40.5,29.97,SSE,158,0.0,0.0,49,0.00,,---,0.00,VWS V14.01,2013-04-24 05:13:00,
2013-04-24 01:14:00,59.7,40.5,29.97,SSE,158,0.0,0.0,49,0.00,,---,0.00,VWS V14.01,2013-04-24 05:14:00,
2013-04-24 01:15:00,59.7,40.5,29.97,SSE,158,0.0,0.0,49,0.00,,---,0.00,VWS V14.01,2013-04-24 05:15:00,
2013-04-24 01:16:00,59.7,40.5,29.97,SSE,158,0.0,0.0,49,0.00,,---,0.00,VWS V14.01,2013-04-24 05:16:00,
2013-04-24 01:19:00,59.5,40.3,29.97,SSE,158,0.0,0.0,49,0.00,,---,0.00,VWS V14.01,2013-04-24 05:19:00,
2013-04-24 01:20:00,59.5,40.3,29.97,SSE,158,0.0,0.0,49,0.00,,---,0.00,VWS V14.01,2013-04-24 05:20:00,
2013-04-24 01:21:00,59.5,40.3,29.97,SSE,158,0.0,0.0,49,0.00,,---,0.00,VWS V14.01,2013-04-24 05:21:00,
2013-04-24 01:24:00,59.5,40.9,29.97,SSE,158,0.0,0.0,50,0.00,,---,0.00,VWS V14.01,2013-04-24 05:24:00,
2013-04-24 01:26:00,59.3,40.7,29.97,SSE,158,0.0,0.0,50,0.00,,---,0.00,VWS V14.01,2013-04-24 05:26:00,
2013-04-24 01:29:00,59.5,40.9,29.97,SSE,158,0.0,0.0,50,0.00,,---,0.00,VWS V14.01,2013-04-24 05:29:00,
2013-04-24 01:31:00,59.3,40.7,29.97,SSE,158,0.0,0.0,50,0.00,,---,0.00,VWS V14.01,2013-04-24 05:31:00,
2013-04-24 01:32:00,59.3,40.7,29.97,SSE,158,0.0,0.0,50,0.00,,---,0.00,VWS V14.01,2013-04-24 05:32:00,
2013-04-24 01:34:00,59.3,40.7,29.97,SSE,158,0.0,0.0,50,0.00,,---,0.00,VWS V14.01,2013-04-24 05:34:00,
2013-04-24 01:36:00,59.3,40.7,29.97,SSE,158,0.0,0.0,50,0.00,,---,0.00,VWS V14.01,2013-04-24 05:36:00,
2013-04-24 01:37:00,59.3,40.7,29.97,SSE,158,0.0,0.0,50,0.00,,---,0.00,VWS V14.01,2013-04-24 05:37:00,
2013-04-24 01:39:00,59.1,41.0,29.97,SSE,158,0.0,0.0,51,0.00,,---,0.00,VWS V14.01,2013-04-24 05:39:00,
2013-04-24 01:42:00,59.1,41.0,29.97,SSE,158,0.0,0.0,51,0.00,,---,0.00,VWS V14.01,2013-04-24 05:42:00,
2013-04-24 01:45:00,59.1,41.0,29.97,SSE,158,0.0,0.0,51,0.00,,---,0.00,VWS V14.01,2013-04-24 05:45:00,
2013-04-24 01:47:00,58.9,40.8,29.98,SSE,158,0.0,0.0,51,0.00,,---,0.00,VWS V14.01,2013-04-24 05:47:00,
2013-04-24 01:48:00,58.9,40.8,29.98,SSE,158,0.0,0.0,51,0.00,,---,0.00,VWS V14.01,2013-04-24 05:48:00,
2013-04-24 01:50:00,58.9,41.3,29.97,SSE,158,0.0,0.0,52,0.00,,---,0.00,VWS V14.01,2013-04-24 05:50:00,
2013-04-24 01:52:00,58.9,41.3,29.97,SSE,158,0.0,0.0,52,0.00,,---,0.00,VWS V14.01,2013-04-24 05:52:00,
2013-04-24 01:53:00,59.1,41.0,29.97,SSE,158,0.0,0.0,51,0.00,,---,0.00,VWS V14.01,2013-04-24 05:53:00,
2013-04-24 01:55:00,59.1,41.0,29.98,SSE,158,0.0,0.0,51,0.00,,---,0.00,VWS V14.01,2013-04-24 05:55:00,
2013-04-24 01:57:00,59.1,40.5,29.98,SSE,158,0.0,0.0,50,0.00,,---,0.00,VWS V14.01,2013-04-24 05:57:00,
2013-04-24 01:58:00,59.1,40.5,29.98,SSE,158,0.0,0.0,50,0.00,,---,0.00,VWS V14.01,2013-04-24 05:58:00,
2013-04-24 02:01:00,59.1,40.5,29.98,SSE,158,0.0,0.0,50,0.00,,---,0.00,VWS V14.01,2013-04-24 06:01:00,
2013-04-24 02:02:00,59.1,40.5,29.98,SSE,158,0.0,0.0,50,0.00,,---,0.00,VWS V14.01,2013-04-24 06:02:00,
2013-04-24 02:03:00,59.1,40.5,29.98,SSE,158,0.0,0.0,50,0.00,,---,0.00,VWS V14.01,2013-04-24 06:03:00,
2013-04-24 02:04:00,59.1,40.5,29.98,SSE,158,0.0,0.0,50,0.00,,---,0.00,VWS V14.01,2013-04-24 06:04:00,
2013-04-24 02:07:00,59.1,40.5,29.98,SSE,158,0.0,0.0,50,0.00,,---,0.00,VWS V14.01,2013-04-24 06:07:00,
2013-04-24 02:08:00,59.1,40.5,29.98,SSE,158,0.0,0.0,50,0.00,,---,0.00,VWS V14.01,2013-04-24 06:08:00,
2013-04-24 02:09:00,59.1,40.5,29.98,SSE,158,0.0,0.0,50,0.00,,---,0.00,VWS V14.01,2013-04-24 06:09:00,
2013-04-24 02:12:00,59.7,40.0,29.97,South,180,0.0,0.0,48,0.00,,---,0.00,VWS V14.01,2013-04-24 06:12:00,
2013-04-24 02:13:00,59.7,40.0,29.98,South,180,0.0,0.0,48,0.00,,---,0.00,VWS V14.01,2013-04-24 06:13:00,
2013-04-24 02:14:00,59.7,40.0,29.97,South,180,0.0,0.0,48,0.00,,---,0.00,VWS V14.01,2013-04-24 06:14:00,
2013-04-24 02:15:00,59.7,40.0,29.97,South,180,0.0,0.0,48,0.00,,---,0.00,VWS V14.01,2013-04-24 06:15:00,
2013-04-24 02:17:00,59.7,40.0,29.98,SSE,158,0.0,0.0,48,0.00,,---,0.00,VWS V14.01,2013-04-24 06:17:00,
2013-04-24 02:20:00,59.8,40.1,29.98,SSE,158,0.0,0.0,48,0.00,,---,0.00,VWS V14.01,2013-04-24 06:20:00,
2013-04-24 02:23:00,59.7,40.0,29.98,SSE,158,0.0,0.0,48,0.00,,---,0.00,VWS V14.01,2013-04-24 06:23:00,
2013-04-24 02:25:00,59.7,40.0,29.97,SSE,158,0.0,0.0,48,0.00,,---,0.00,VWS V14.01,2013-04-24 06:25:00,
2013-04-24 02:26:00,59.7,40.0,29.97,SSE,158,0.0,0.0,48,0.00,,---,0.00,VWS V14.01,2013-04-24 06:26:00,
2013-04-24 02:28:00,59.7,40.0,29.97,South,180,0.0,0.0,48,0.00,,---,0.00,VWS V14.01,2013-04-24 06:28:00,
2013-04-24 02:30:00,59.8,40.1,29.98,South,180,0.0,0.0,48,0.00,,---,0.00,VWS V14.01,2013-04-24 06:30:00,
2013-04-24 02:31:00,59.8,40.1,29.98,South,180,0.0,0.0,48,0.00,,---,0.00,VWS V14.01,2013-04-24 06:31:00,
2013-04-24 02:32:00,59.7,40.0,29.97,South,180,0.0,0.0,48,0.00,,---,0.00,VWS V14.01,2013-04-24 06:32:00,
2013-04-24 02:34:00,59.7,40.0,29.97,South,180,0.0,0.0,48,0.00,,---,0.00,VWS V14.01,2013-04-24 06:34:00,
2013-04-24 02:35:00,59.8,40.1,29.98,South,180,0.0,0.0,48,0.00,,---,0.00,VWS V14.01,2013-04-24 06:35:00,
2013-04-24 02:36:00,59.8,40.1,29.98,South,180,0.0,0.0,48,0.00,,---,0.00,VWS V14.01,2013-04-24 06:36:00,
2013-04-24 02:37:00,59.8,40.1,29.98,South,180,0.0,0.0,48,0.00,,---,0.00,VWS V14.01,2013-04-24 06:37:00,
2013-04-24 02:38:00,59.7,40.0,29.98,South,180,0.0,0.0,48,0.00,,---,0.00,VWS V14.01,2013-04-24 06:38:00,
2013-04-24 02:39:00,60.0,40.3,29.98,South,180,0.0,0.0,48,0.00,,---,0.00,VWS V14.01,2013-04-24 06:39:00,
2013-04-24 02:40:00,60.0,40.3,29.98,South,180,0.0,0.0,48,0.00,,---,0.00,VWS V14.01,2013-04-24 06:40:00,
2013-04-24 02:41:00,60.0,40.3,29.98,South,180,0.0,0.0,48,0.00,,---,0.00,VWS V14.01,2013-04-24 06:41:00,
2013-04-24 02:42:00,60.0,40.3,29.98,South,180,0.0,0.0,48,0.00,,---,0.00,VWS V14.01,2013-04-24 06:42:00,
2013-04-24 02:43:00,60.0,40.3,29.98,South,180,0.0,0.0,48,0.00,,---,0.00,VWS V14.01,2013-04-24 06:43:00,
2013-04-24 02:44:00,60.2,40.5,29.97,South,180,0.0,0.0,48,0.00,,---,0.00,VWS V14.01,2013-04-24 06:44:00,
2013-04-24 02:45:00,60.2,40.5,29.98,South,180,0.0,0.0,48,0.00,,---,0.00,VWS V14.01,2013-04-24 06:45:00,
2013-04-24 02:47:00,60.2,40.5,29.97,South,180,0.0,0.0,48,0.00,,---,0.00,VWS V14.01,2013-04-24 06:47:00,
2013-04-24 02:48:00,60.2,40.5,29.98,SW,225,1.5,1.5,48,0.00,,---,0.00,VWS V14.01,2013-04-24 06:48:00,
2013-04-24 02:50:00,60.2,40.5,29.98,WSW,248,0.0,0.0,48,0.00,,---,0.00,VWS V14.01,2013-04-24 06:50:00,
2013-04-24 02:51:00,60.2,40.5,29.98,WSW,248,0.0,0.0,48,0.00,,---,0.00,VWS V14.01,2013-04-24 06:51:00,
2013-04-24 02:52:00,60.2,40.5,29.98,SW,225,0.0,0.0,48,0.00,,---,0.00,VWS V14.01,2013-04-24 06:52:00,
2013-04-24 02:53:00,60.2,40.5,29.98,SW,225,0.0,0.0,48,0.00,,---,0.00,VWS V14.01,2013-04-24 06:53:00,
2013-04-24 02:54:00,60.2,40.5,29.98,SW,225,0.0,0.0,48,0.00,,---,0.00,VWS V14.01,2013-04-24 06:54:00,
2013-04-24 02:56:00,60.2,40.5,29.98,SSW,202,0.0,0.0,48,0.00,,---,0.00,VWS V14.01,2013-04-24 06:56:00,
2013-04-24 02:58:00,60.4,40.6,29.98,SSW,202,0.0,0.0,48,0.00,,---,0.00,VWS V14.01,2013-04-24 06:58:00,
2013-04-24 02:59:00,60.2,40.5,29.98,SSE,158,1.5,1.5,48,0.00,,---,0.00,VWS V14.01,2013-04-24 06:59:00,
2013-04-24 03:01:00,60.2,40.5,29.97,SSE,158,1.5,1.5,48,0.00,,---,0.00,VWS V14.01,2013-04-24 07:01:00,
2013-04-24 03:03:00,60.4,40.6,29.97,SSE,158,0.0,1.5,48,0.00,,---,0.00,VWS V14.01,2013-04-24 07:03:00,
2013-04-24 03:04:00,60.4,40.6,29.97,SSE,158,0.0,1.5,48,0.00,,---,0.00,VWS V14.01,2013-04-24 07:04:00,
2013-04-24 03:06:00,60.2,40.5,29.97,SSE,158,0.0,0.0,48,0.00,,---,0.00,VWS V14.01,2013-04-24 07:06:00,
2013-04-24 03:07:00,60.2,40.5,29.97,SSE,158,0.0,0.0,48,0.00,,---,0.00,VWS V14.01,2013-04-24 07:07:00,
2013-04-24 03:08:00,60.2,40.5,29.97,SSE,158,0.0,0.0,48,0.00,,---,0.00,VWS V14.01,2013-04-24 07:08:00,
2013-04-24 03:09:00,60.2,40.5,29.97,SSE,158,0.0,0.0,48,0.00,,---,0.00,VWS V14.01,2013-04-24 07:09:00,
2013-04-24 03:11:00,60.4,40.6,29.97,SSW,202,0.0,0.0,48,0.00,,---,0.00,VWS V14.01,2013-04-24 07:11:00,
2013-04-24 03:13:00,60.4,40.6,29.97,SSW,202,0.0,0.0,48,0.00,,---,0.00,VWS V14.01,2013-04-24 07:13:00,
2013-04-24 03:14:00,60.4,40.6,29.97,South,180,0.0,0.0,48,0.00,,---,0.00,VWS V14.01,2013-04-24 07:14:00,
2013-04-24 03:17:00,60.2,40.5,29.97,South,180,0.0,0.0,48,0.00,,---,0.00,VWS V14.01,2013-04-24 07:17:00,
2013-04-24 03:18:00,60.2,40.5,29.96,South,180,0.0,0.0,48,0.00,,---,0.00,VWS V14.01,2013-04-24 07:18:00,
2013-04-24 03:19:00,60.4,40.6,29.97,South,180,0.0,0.0,48,0.00,,---,0.00,VWS V14.01,2013-04-24 07:19:00,
2013-04-24 03:20:00,60.4,40.6,29.97,South,180,0.0,0.0,48,0.00,,---,0.00,VWS V14.01,2013-04-24 07:20:00,
2013-04-24 03:22:00,60.2,40.5,29.97,South,180,0.0,0.0,48,0.00,,---,0.00,VWS V14.01,2013-04-24 07:22:00,
2013-04-24 03:23:00,60.2,40.5,29.97,South,180,0.0,0.0,48,0.00,,---,0.00,VWS V14.01,2013-04-24 07:23:00,
2013-04-24 03:24:00,60.2,40.5,29.97,WNW,292,0.0,0.0,48,0.00,,---,0.00,VWS V14.01,2013-04-24 07:24:00,
2013-04-24 03:25:00,60.2,40.5,29.97,WNW,292,0.0,0.0,48,0.00,,---,0.00,VWS V14.01,2013-04-24 07:25:00,
2013-04-24 03:27:00,60.4,40.6,29.97,SSW,202,0.0,0.0,48,0.00,,---,0.00,VWS V14.01,2013-04-24 07:27:00,
2013-04-24 03:29:00,60.4,40.6,29.97,SSW,202,0.0,0.0,48,0.00,,---,0.00,VWS V14.01,2013-04-24 07:29:00,
2013-04-24 03:30:00,60.4,40.6,29.97,SSW,202,0.0,0.0,48,0.00,,---,0.00,VWS V14.01,2013-04-24 07:30:00,
2013-04-24 03:32:00,60.6,40.8,29.97,SSW,202,0.0,0.0,48,0.00,,---,0.00,VWS V14.01,2013-04-24 07:32:00,
2013-04-24 03:34:00,60.4,40.6,29.97,South,180,0.0,0.0,48,0.00,,---,0.00,VWS V14.01,2013-04-24 07:34:00,
2013-04-24 03:35:00,60.4,40.6,29.96,SW,225,0.0,0.0,48,0.00,,---,0.00,VWS V14.01,2013-04-24 07:35:00,
2013-04-24 03:36:00,60.4,40.6,29.96,SW,225,0.0,0.0,48,0.00,,---,0.00,VWS V14.01,2013-04-24 07:36:00,
2013-04-24 03:38:00,60.4,40.6,29.96,SW,225,0.0,0.0,48,0.00,,---,0.00,VWS V14.01,2013-04-24 07:38:00,
2013-04-24 03:40:00,60.4,40.6,29.96,SW,225,0.0,0.0,48,0.00,,---,0.00,VWS V14.01,2013-04-24 07:40:00,
2013-04-24 03:41:00,60.4,40.6,29.96,SW,225,0.0,0.0,48,0.00,,---,0.00,VWS V14.01,2013-04-24 07:41:00,
2013-04-24 03:43:00,60.4,40.6,29.96,SW,225,0.0,0.0,48,0.00,,---,0.00,VWS V14.01,2013-04-24 07:43:00,
2013-04-24 03:45:00,60.6,40.8,29.96,SW,225,0.0,0.0,48,0.00,,---,0.00,VWS V14.01,2013-04-24 07:45:00,
2013-04-24 03:46:00,60.6,40.8,29.96,SW,225,0.0,0.0,48,0.00,,---,0.00,VWS V14.01,2013-04-24 07:46:00,
2013-04-24 03:48:00,60.4,40.6,29.96,SW,225,0.0,0.0,48,0.00,,---,0.00,VWS V14.01,2013-04-24 07:48:00,
2013-04-24 03:51:00,60.2,40.5,29.96,SSW,202,0.0,0.0,48,0.00,,---,0.00,VWS V14.01,2013-04-24 07:51:00,
2013-04-24 03:52:00,60.2,40.5,29.96,SSW,202,0.0,0.0,48,0.00,,---,0.00,VWS V14.01,2013-04-24 07:52:00,
2013-04-24 03:53:00,60.4,40.6,29.96,South,180,0.0,0.0,48,0.00,,---,0.00,VWS V14.01,2013-04-24 07:53:00,
2013-04-24 03:56:00,60.4,40.6,29.96,South,180,0.0,0.0,48,0.00,,---,0.00,VWS V14.01,2013-04-24 07:56:00,
2013-04-24 03:57:00,60.4,40.6,29.96,South,180,0.0,0.0,48,0.00,,---,0.00,VWS V14.01,2013-04-24 07:57:00,
2013-04-24 03:58:00,60.4,40.6,29.96,South,180,0.0,0.0,48,0.00,,---,0.00,VWS V14.01,2013-04-24 07:58:00,
2013-04-24 04:02:00,60.2,40.5,29.96,South,180,0.0,0.0,48,0.00,,---,0.00,VWS V14.01,2013-04-24 08:02:00,
2013-04-24 04:03:00,60.2,40.5,29.96,South,180,0.0,0.0,48,0.00,,---,0.00,VWS V14.01,2013-04-24 08:03:00,
2013-04-24 04:04:00,60.2,40.5,29.96,South,180,0.0,0.0,48,0.00,,---,0.00,VWS V14.01,2013-04-24 08:04:00,
2013-04-24 04:07:00,60.2,40.5,29.95,SW,225,0.0,0.0,48,0.00,,---,0.00,VWS V14.01,2013-04-24 08:07:00,
2013-04-24 04:08:00,60.2,40.5,29.95,SW,225,0.0,0.0,48,0.00,,---,0.00,VWS V14.01,2013-04-24 08:08:00,
2013-04-24 04:09:00,60.2,40.5,29.95,SW,225,0.0,0.0,48,0.00,,---,0.00,VWS V14.01,2013-04-24 08:09:00,
2013-04-24 04:12:00,60.2,40.5,29.96,SW,225,0.0,0.0,48,0.00,,---,0.00,VWS V14.01,2013-04-24 08:12:00,
2013-04-24 04:13:00,60.2,41.0,29.96,SW,225,0.0,0.0,49,0.00,,---,0.00,VWS V14.01,2013-04-24 08:13:00,
2013-04-24 04:14:00,60.2,41.0,29.96,SW,225,0.0,0.0,49,0.00,,---,0.00,VWS V14.01,2013-04-24 08:14:00,
2013-04-24 04:17:00,60.0,40.8,29.95,SW,225,0.0,0.0,49,0.00,,---,0.00,VWS V14.01,2013-04-24 08:17:00,
2013-04-24 04:18:00,60.0,40.8,29.95,SW,225,0.0,0.0,49,0.00,,---,0.00,VWS V14.01,2013-04-24 08:18:00,
2013-04-24 04:19:00,60.0,40.8,29.95,SW,225,0.0,0.0,49,0.00,,---,0.00,VWS V14.01,2013-04-24 08:19:00,
2013-04-24 04:23:00,59.7,40.5,29.94,SW,225,0.0,0.0,49,0.00,,---,0.00,VWS V14.01,2013-04-24 08:23:00,
2013-04-24 04:24:00,59.7,40.5,29.94,SW,225,0.0,0.0,49,0.00,,---,0.00,VWS V14.01,2013-04-24 08:24:00,
2013-04-24 04:28:00,59.5,40.9,29.94,SSW,202,0.0,0.0,50,0.00,,---,0.00,VWS V14.01,2013-04-24 08:28:00,
2013-04-24 04:29:00,59.5,40.9,29.94,SSE,158,0.0,0.0,50,0.00,,---,0.00,VWS V14.01,2013-04-24 08:29:00,
2013-04-24 04:33:00,59.3,41.2,29.93,SSE,158,0.0,0.0,51,0.00,,---,0.00,VWS V14.01,2013-04-24 08:33:00,
2013-04-24 04:35:00,59.3,41.2,29.94,SSE,158,0.0,0.0,51,0.00,,---,0.00,VWS V14.01,2013-04-24 08:35:00,
2013-04-24 04:38:00,59.3,41.2,29.93,SSE,158,0.0,0.0,51,0.00,,---,0.00,VWS V14.01,2013-04-24 08:38:00,
2013-04-24 04:40:00,59.1,41.0,29.93,SSE,158,0.0,0.0,51,0.00,,---,0.00,VWS V14.01,2013-04-24 08:40:00,
2013-04-24 04:43:00,59.3,41.2,29.93,SSE,158,0.0,2.0,51,0.00,,---,0.00,VWS V14.01,2013-04-24 08:43:00,
2013-04-24 04:44:00,59.3,41.2,29.93,SSE,158,0.0,0.0,51,0.00,,---,0.00,VWS V14.01,2013-04-24 08:44:00,
2013-04-24 04:45:00,59.3,41.2,29.93,SSE,158,0.0,0.0,51,0.00,,---,0.00,VWS V14.01,2013-04-24 08:45:00,
2013-04-24 04:46:00,59.3,41.2,29.93,SSE,158,0.0,0.0,51,0.00,,---,0.00,VWS V14.01,2013-04-24 08:46:00,
2013-04-24 04:50:00,59.3,41.2,29.93,SSE,158,0.0,0.0,51,0.00,,---,0.00,VWS V14.01,2013-04-24 08:50:00,
2013-04-24 04:51:00,59.3,41.2,29.93,SSE,158,0.0,0.0,51,0.00,,---,0.00,VWS V14.01,2013-04-24 08:51:00,
2013-04-24 04:55:00,58.9,40.8,29.93,SSE,158,0.0,0.0,51,0.00,,---,0.00,VWS V14.01,2013-04-24 08:55:00,
2013-04-24 04:56:00,59.1,41.5,29.93,SSE,158,0.0,0.0,52,0.00,,---,0.00,VWS V14.01,2013-04-24 08:56:00,
2013-04-24 05:00:00,59.1,41.5,29.93,SSE,158,0.0,0.0,52,0.00,,---,0.00,VWS V14.01,2013-04-24 09:00:00,
2013-04-24 05:01:00,59.1,41.5,29.93,SSE,158,0.0,0.0,52,0.00,,---,0.00,VWS V14.01,2013-04-24 09:01:00,
2013-04-24 05:05:00,59.1,41.5,29.93,SSE,158,0.0,0.0,52,0.00,,---,0.00,VWS V14.01,2013-04-24 09:05:00,
2013-04-24 05:06:00,59.1,41.5,29.93,SSE,158,0.0,0.0,52,0.00,,---,0.00,VWS V14.01,2013-04-24 09:06:00,
2013-04-24 05:07:00,59.1,41.5,29.93,SSE,158,0.0,0.0,52,0.00,,---,0.00,VWS V14.01,2013-04-24 09:07:00,
2013-04-24 05:11:00,59.1,41.5,29.92,SSE,158,0.0,0.0,52,0.00,,---,0.00,VWS V14.01,2013-04-24 09:11:00,
2013-04-24 05:12:00,59.1,41.5,29.92,SSE,158,0.0,0.0,52,0.00,,---,0.00,VWS V14.01,2013-04-24 09:12:00,
2013-04-24 05:16:00,59.1,41.5,29.92,SSE,158,0.0,0.0,52,0.00,,---,0.00,VWS V14.01,2013-04-24 09:16:00,
2013-04-24 05:17:00,59.1,41.5,29.92,SSE,158,0.0,0.0,52,0.00,,---,0.00,VWS V14.01,2013-04-24 09:17:00,
2013-04-24 05:18:00,58.9,41.3,29.92,SSE,158,0.0,0.0,52,0.00,,---,0.00,VWS V14.01,2013-04-24 09:18:00,
2013-04-24 05:21:00,58.9,41.3,29.92,SSE,158,0.0,0.0,52,0.00,,---,0.00,VWS V14.01,2013-04-24 09:21:00,
2013-04-24 05:22:00,58.9,41.3,29.92,SSE,158,0.0,0.0,52,0.00,,---,0.00,VWS V14.01,2013-04-24 09:22:00,
2013-04-24 05:23:00,58.9,41.3,29.93,SSE,158,0.0,0.0,52,0.00,,---,0.00,VWS V14.01,2013-04-24 09:23:00,
2013-04-24 05:24:00,58.9,41.3,29.93,SSE,158,0.0,0.0,52,0.00,,---,0.00,VWS V14.01,2013-04-24 09:24:00,
2013-04-24 05:26:00,58.9,41.3,29.93,SSE,158,0.0,0.0,52,0.00,,---,0.00,VWS V14.01,2013-04-24 09:26:00,
2013-04-24 05:27:00,58.9,41.3,29.93,SSE,158,0.0,0.0,52,0.00,,---,0.00,VWS V14.01,2013-04-24 09:27:00,
2013-04-24 05:28:00,59.1,41.5,29.93,SSE,158,0.0,0.0,52,0.00,,---,0.00,VWS V14.01,2013-04-24 09:28:00,
2013-04-24 05:29:00,59.1,41.5,29.92,SSE,158,0.0,0.0,52,0.00,,---,0.00,VWS V14.01,2013-04-24 09:29:00,
2013-04-24 05:32:00,58.9,41.3,29.92,SSE,158,0.0,0.0,52,0.00,,---,0.00,VWS V14.01,2013-04-24 09:32:00,
2013-04-24 05:33:00,58.9,41.3,29.92,SSE,158,0.0,0.0,52,0.00,,---,0.00,VWS V14.01,2013-04-24 09:33:00,
2013-04-24 05:34:00,58.9,41.3,29.92,SSE,158,0.0,0.0,52,0.00,,---,0.00,VWS V14.01,2013-04-24 09:34:00,
2013-04-24 05:37:00,59.1,41.5,29.93,SSE,158,0.0,0.0,52,0.00,,---,0.00,VWS V14.01,2013-04-24 09:37:00,
2013-04-24 05:38:00,59.1,41.5,29.93,SSE,158,0.0,0.0,52,0.00,,---,0.00,VWS V14.01,2013-04-24 09:38:00,
2013-04-24 05:39:00,59.1,41.5,29.93,SSE,158,0.0,0.0,52,0.00,,---,0.00,VWS V14.01,2013-04-24 09:39:00,
2013-04-24 05:42:00,58.9,41.3,29.93,SSE,158,0.0,0.0,52,0.00,,---,0.00,VWS V14.01,2013-04-24 09:42:00,
2013-04-24 05:43:00,58.9,41.3,29.93,SSE,158,0.0,0.0,52,0.00,,---,0.00,VWS V14.01,2013-04-24 09:43:00,
2013-04-24 05:44:00,58.9,41.3,29.93,SSE,158,0.0,0.0,52,0.00,,---,0.00,VWS V14.01,2013-04-24 09:44:00,
2013-04-24 05:48:00,58.9,41.3,29.92,SSE,158,0.0,0.0,52,0.00,,---,0.00,VWS V14.01,2013-04-24 09:48:00,
2013-04-24 05:49:00,58.9,41.3,29.92,SSE,158,0.0,0.0,52,0.00,,---,0.00,VWS V14.01,2013-04-24 09:49:00,
2013-04-24 05:50:00,58.9,41.8,29.92,SSE,158,0.0,0.0,53,0.00,,---,0.00,VWS V14.01,2013-04-24 09:50:00,
2013-04-24 05:53:00,58.8,41.7,29.92,SSE,158,0.0,0.0,53,0.00,,---,0.00,VWS V14.01,2013-04-24 09:53:00,
2013-04-24 05:54:00,58.8,41.7,29.92,SSE,158,0.0,0.0,53,0.00,,---,0.00,VWS V14.01,2013-04-24 09:54:00,
2013-04-24 05:56:00,58.8,41.7,29.93,SSE,158,0.0,0.0,53,0.00,,---,0.00,VWS V14.01,2013-04-24 09:56:00,
2013-04-24 05:58:00,58.6,41.5,29.93,SSE,158,0.0,0.0,53,0.00,,---,0.00,VWS V14.01,2013-04-24 09:58:00,
2013-04-24 05:59:00,58.6,41.5,29.93,SSE,158,0.0,0.0,53,0.00,,---,0.00,VWS V14.01,2013-04-24 09:59:00,
2013-04-24 06:00:00,58.6,41.5,29.93,SSE,158,0.0,0.0,53,0.00,,---,0.00,VWS V14.01,2013-04-24 10:00:00,
2013-04-24 06:01:00,58.8,42.2,29.93,SSE,158,0.0,0.0,54,0.00,,---,0.00,VWS V14.01,2013-04-24 10:01:00,
2013-04-24 06:03:00,58.8,42.2,29.93,SSE,158,0.0,0.0,54,0.00,,---,0.00,VWS V14.01,2013-04-24 10:03:00,
2013-04-24 06:04:00,58.8,42.2,29.93,SSE,158,0.0,0.0,54,0.00,,---,0.00,VWS V14.01,2013-04-24 10:04:00,
2013-04-24 06:05:00,58.8,42.2,29.93,SSE,158,0.0,0.0,54,0.00,,---,0.00,VWS V14.01,2013-04-24 10:05:00,
2013-04-24 06:06:00,58.8,42.2,29.93,SSE,158,0.0,0.0,54,0.00,,---,0.00,VWS V14.01,2013-04-24 10:06:00,
2013-04-24 06:09:00,58.8,42.2,29.93,SSE,158,0.0,0.0,54,0.00,,---,0.00,VWS V14.01,2013-04-24 10:09:00,
2013-04-24 06:10:00,58.8,42.2,29.93,SSE,158,0.0,0.0,54,0.00,,---,0.00,VWS V14.01,2013-04-24 10:10:00,
2013-04-24 06:11:00,58.8,42.2,29.93,SSE,158,0.0,0.0,54,0.00,,---,0.00,VWS V14.01,2013-04-24 10:11:00,
2013-04-24 06:14:00,57.9,41.8,29.93,SSE,158,0.0,0.0,55,0.00,,---,0.00,VWS V14.01,2013-04-24 10:14:00,
2013-04-24 06:15:00,57.7,41.7,29.94,SSE,158,0.0,0.0,55,0.00,,---,0.00,VWS V14.01,2013-04-24 10:15:00,
2013-04-24 06:16:00,57.7,41.7,29.94,SSE,158,0.0,0.0,55,0.00,,---,0.00,VWS V14.01,2013-04-24 10:16:00,
2013-04-24 06:19:00,57.7,42.1,29.93,SSE,158,0.0,0.0,56,0.00,,---,0.00,VWS V14.01,2013-04-24 10:19:00,
2013-04-24 06:20:00,57.7,42.1,29.93,SSE,158,0.0,0.0,56,0.00,,---,0.00,VWS V14.01,2013-04-24 10:20:00,
2013-04-24 06:21:00,57.7,42.1,29.93,SSE,158,0.0,0.0,56,0.00,,---,0.00,VWS V14.01,2013-04-24 10:21:00,
2013-04-24 06:25:00,57.7,42.6,29.93,SSE,158,0.0,0.0,57,0.00,,---,0.00,VWS V14.01,2013-04-24 10:25:00,
2013-04-24 06:26:00,57.7,42.6,29.92,SSE,158,0.0,0.0,57,0.00,,---,0.00,VWS V14.01,2013-04-24 10:26:00,
2013-04-24 06:30:00,57.7,42.6,29.92,SSE,158,0.0,0.0,57,0.00,,---,0.00,VWS V14.01,2013-04-24 10:30:00,
2013-04-24 06:31:00,57.5,42.4,29.93,SSE,158,0.0,0.0,57,0.00,,---,0.00,VWS V14.01,2013-04-24 10:31:00,
2013-04-24 06:32:00,57.5,42.4,29.93,SSE,158,0.0,0.0,57,0.00,,---,0.00,VWS V14.01,2013-04-24 10:32:00,
2013-04-24 06:35:00,57.3,42.7,29.92,SSE,158,0.0,0.0,58,0.00,,---,0.00,VWS V14.01,2013-04-24 10:35:00,
2013-04-24 06:36:00,57.3,42.7,29.92,SSE,158,0.0,0.0,58,0.00,,---,0.00,VWS V14.01,2013-04-24 10:36:00,
2013-04-24 06:37:00,57.3,42.7,29.92,SSE,158,0.0,0.0,58,0.00,,---,0.00,VWS V14.01,2013-04-24 10:37:00,
2013-04-24 06:40:00,57.1,42.9,29.92,SSE,158,0.0,0.0,59,0.00,,---,0.00,VWS V14.01,2013-04-24 10:40:00,
2013-04-24 06:41:00,57.1,42.9,29.92,SSE,158,0.0,0.0,59,0.00,,---,0.00,VWS V14.01,2013-04-24 10:41:00,
2013-04-24 06:42:00,57.1,42.9,29.92,SSE,158,0.0,0.0,59,0.00,,---,0.00,VWS V14.01,2013-04-24 10:42:00,
2013-04-24 06:45:00,57.1,42.9,29.92,SSE,158,0.0,0.0,59,0.00,,---,0.00,VWS V14.01,2013-04-24 10:45:00,
2013-04-24 06:46:00,57.1,42.9,29.92,SSE,158,0.0,0.0,59,0.00,,---,0.00,VWS V14.01,2013-04-24 10:46:00,
2013-04-24 06:47:00,57.1,42.9,29.92,SSE,158,0.0,0.0,59,0.00,,---,0.00,VWS V14.01,2013-04-24 10:47:00,
2013-04-24 06:50:00,57.0,43.3,29.92,SSE,158,0.0,0.0,60,0.00,,---,0.00,VWS V14.01,2013-04-24 10:50:00,
2013-04-24 06:52:00,57.0,43.3,29.92,SSE,158,0.0,0.0,60,0.00,,---,0.00,VWS V14.01,2013-04-24 10:52:00,
2013-04-24 06:53:00,57.0,43.3,29.92,SSE,158,0.0,0.0,60,0.00,,---,0.00,VWS V14.01,2013-04-24 10:53:00,
2013-04-24 06:56:00,56.8,43.1,29.92,SSE,158,0.0,0.0,60,0.00,,---,0.00,VWS V14.01,2013-04-24 10:56:00,
2013-04-24 06:57:00,56.8,43.1,29.91,SSE,158,0.0,0.0,60,0.00,,---,0.00,VWS V14.01,2013-04-24 10:57:00,
2013-04-24 06:58:00,56.8,43.1,29.91,SSE,158,0.0,0.0,60,0.00,,---,0.00,VWS V14.01,2013-04-24 10:58:00,
2013-04-24 07:01:00,56.8,43.5,29.91,SSE,158,0.0,0.0,61,0.00,,---,0.00,VWS V14.01,2013-04-24 11:01:00,
2013-04-24 07:02:00,56.8,43.5,29.91,SSE,158,0.0,0.0,61,0.00,,---,0.00,VWS V14.01,2013-04-24 11:02:00,
2013-04-24 07:03:00,56.8,43.5,29.91,SSE,158,0.0,0.0,61,0.00,,---,0.00,VWS V14.01,2013-04-24 11:03:00,
2013-04-24 07:06:00,56.8,43.5,29.91,SSE,158,0.0,0.0,61,0.00,,---,0.00,VWS V14.01,2013-04-24 11:06:00,
2013-04-24 07:07:00,56.8,43.5,29.91,SSE,158,0.0,0.0,61,0.00,,---,0.00,VWS V14.01,2013-04-24 11:07:00,
2013-04-24 07:08:00,56.8,43.5,29.91,SSE,158,0.0,0.0,61,0.00,,---,0.00,VWS V14.01,2013-04-24 11:08:00,
2013-04-24 07:10:00,56.6,43.3,29.91,SSE,158,0.0,0.0,61,0.00,,---,0.00,VWS V14.01,2013-04-24 11:10:00,
2013-04-24 07:11:00,56.6,43.3,29.91,SSE,158,0.0,0.0,61,0.00,,---,0.00,VWS V14.01,2013-04-24 11:11:00,
2013-04-24 07:12:00,56.8,43.5,29.91,SSE,158,0.0,0.0,61,0.00,,---,0.00,VWS V14.01,2013-04-24 11:12:00,
2013-04-24 07:13:00,56.8,43.5,29.91,SSE,158,0.0,0.0,61,0.00,,---,0.00,VWS V14.01,2013-04-24 11:13:00,
2013-04-24 07:14:00,56.8,43.5,29.91,SSE,158,0.0,0.0,61,0.00,,---,0.00,VWS V14.01,2013-04-24 11:14:00,
2013-04-24 07:15:00,56.8,43.5,29.91,SSE,158,0.0,0.0,61,0.00,,---,0.00,VWS V14.01,2013-04-24 11:15:00,
2013-04-24 07:16:00,56.8,43.5,29.91,SSE,158,0.0,0.0,61,0.00,,---,0.00,VWS V14.01,2013-04-24 11:16:00,
2013-04-24 07:18:00,56.8,43.9,29.91,SSE,158,0.0,0.0,62,0.00,,---,0.00,VWS V14.01,2013-04-24 11:18:00,
2013-04-24 07:19:00,56.8,43.9,29.91,SSE,158,0.0,0.0,62,0.00,,---,0.00,VWS V14.01,2013-04-24 11:19:00,
2013-04-24 07:20:00,56.8,43.9,29.91,SSE,158,0.0,0.0,62,0.00,,---,0.00,VWS V14.01,2013-04-24 11:20:00,
2013-04-24 07:21:00,56.6,43.8,29.91,SSE,158,0.0,0.0,62,0.00,,---,0.00,VWS V14.01,2013-04-24 11:21:00,
2013-04-24 07:23:00,56.6,43.8,29.92,SSE,158,0.0,0.0,62,0.00,,---,0.00,VWS V14.01,2013-04-24 11:23:00,
2013-04-24 07:24:00,56.6,43.8,29.92,SSE,158,0.0,0.0,62,0.00,,---,0.00,VWS V14.01,2013-04-24 11:24:00,
2013-04-24 07:25:00,56.6,43.8,29.92,SSE,158,0.0,0.0,62,0.00,,---,0.00,VWS V14.01,2013-04-24 11:25:00,
2013-04-24 07:27:00,56.6,43.8,29.92,SSE,158,0.0,0.0,62,0.00,,---,0.00,VWS V14.01,2013-04-24 11:27:00,
2013-04-24 07:28:00,56.6,43.8,29.91,SSE,158,0.0,0.0,62,0.00,,---,0.00,VWS V14.01,2013-04-24 11:28:00,
2013-04-24 07:30:00,56.6,43.8,29.92,SSE,158,0.0,0.0,62,0.00,,---,0.00,VWS V14.01,2013-04-24 11:30:00,
2013-04-24 07:31:00,56.6,43.8,29.92,SSE,158,0.0,0.0,62,0.00,,---,0.00,VWS V14.01,2013-04-24 11:31:00,
2013-04-24 07:32:00,57.0,44.1,29.92,SSE,158,0.0,0.0,62,0.00,,---,0.00,VWS V14.01,2013-04-24 11:32:00,
2013-04-24 07:34:00,57.0,44.1,29.92,SSE,158,0.0,0.0,62,0.00,,---,0.00,VWS V14.01,2013-04-24 11:34:00,
2013-04-24 07:35:00,57.1,44.2,29.92,SSE,158,0.0,0.0,62,0.00,,---,0.00,VWS V14.01,2013-04-24 11:35:00,
2013-04-24 07:36:00,57.1,44.2,29.92,SSE,158,0.0,0.0,62,0.00,,---,0.00,VWS V14.01,2013-04-24 11:36:00,
2013-04-24 07:38:00,57.1,43.8,29.92,SSE,158,0.0,0.0,61,0.00,,---,0.00,VWS V14.01,2013-04-24 11:38:00,
2013-04-24 07:39:00,57.1,43.8,29.92,SSE,158,0.0,0.0,61,0.00,,---,0.00,VWS V14.01,2013-04-24 11:39:00,
2013-04-24 07:40:00,57.3,44.0,29.92,SSE,158,0.0,0.0,61,0.00,,---,0.00,VWS V14.01,2013-04-24 11:40:00,
2013-04-24 07:41:00,57.3,44.0,29.92,SSE,158,0.0,0.0,61,0.00,,---,0.00,VWS V14.01,2013-04-24 11:41:00,
2013-04-24 07:43:00,57.3,44.0,29.92,SSE,158,0.0,0.0,61,0.00,,---,0.00,VWS V14.01,2013-04-24 11:43:00,
2013-04-24 07:44:00,57.5,44.2,29.92,SSE,158,0.0,0.0,61,0.00,,---,0.00,VWS V14.01,2013-04-24 11:44:00,
2013-04-24 07:45:00,57.5,44.2,29.93,SSE,158,0.0,0.0,61,0.00,,---,0.00,VWS V14.01,2013-04-24 11:45:00,
2013-04-24 07:46:00,57.5,44.2,29.93,SSE,158,0.0,0.0,61,0.00,,---,0.00,VWS V14.01,2013-04-24 11:46:00,
2013-04-24 07:48:00,57.5,44.2,29.93,SSE,158,0.0,0.0,61,0.00,,---,0.00,VWS V14.01,2013-04-24 11:48:00,
2013-04-24 07:50:00,57.9,44.1,29.93,West,270,0.0,0.0,60,0.00,,---,0.00,VWS V14.01,2013-04-24 11:50:00,
2013-04-24 07:51:00,57.9,44.1,29.93,West,270,0.0,0.0,60,0.00,,---,0.00,VWS V14.01,2013-04-24 11:51:00,
2013-04-24 07:52:00,57.9,43.7,29.93,West,270,0.0,0.0,59,0.00,,---,0.00,VWS V14.01,2013-04-24 11:52:00,
2013-04-24 07:53:00,57.9,43.7,29.93,WNW,292,0.0,0.0,59,0.00,,---,0.00,VWS V14.01,2013-04-24 11:53:00,
2013-04-24 07:55:00,58.0,43.3,29.93,West,270,0.0,0.0,58,0.00,,---,0.00,VWS V14.01,2013-04-24 11:55:00,
2013-04-24 07:56:00,58.0,43.3,29.93,West,270,0.0,0.0,58,0.00,,---,0.00,VWS V14.01,2013-04-24 11:56:00,
2013-04-24 07:57:00,58.0,43.3,29.93,West,270,0.0,0.0,58,0.00,,---,0.00,VWS V14.01,2013-04-24 11:57:00,
2013-04-24 07:58:00,58.2,43.5,29.93,West,270,0.0,0.0,58,0.00,,---,0.00,VWS V14.01,2013-04-24 11:58:00,
2013-04-24 08:00:00,58.2,43.5,29.92,West,270,0.0,0.0,58,0.00,,---,0.00,VWS V14.01,2013-04-24 12:00:00,
2013-04-24 08:01:00,58.4,43.7,29.92,West,270,0.0,0.0,58,0.00,,---,0.00,VWS V14.01,2013-04-24 12:01:00,
2013-04-24 08:02:00,58.4,43.7,29.92,West,270,0.0,0.0,58,0.00,,---,0.00,VWS V14.01,2013-04-24 12:02:00,
2013-04-24 08:04:00,58.6,43.4,29.92,West,270,0.0,0.0,57,0.00,,---,0.00,VWS V14.01,2013-04-24 12:04:00,
2013-04-24 08:05:00,58.6,43.4,29.92,West,270,0.0,0.0,57,0.00,,---,0.00,VWS V14.01,2013-04-24 12:05:00,
2013-04-24 08:07:00,58.4,43.2,29.92,West,270,0.0,0.0,57,0.00,,---,0.00,VWS V14.01,2013-04-24 12:07:00,
2013-04-24 08:10:00,58.9,43.7,29.92,West,270,0.0,0.0,57,0.00,,---,0.00,VWS V14.01,2013-04-24 12:10:00,
2013-04-24 08:11:00,58.9,43.7,29.92,West,270,0.0,0.0,57,0.00,,---,0.00,VWS V14.01,2013-04-24 12:11:00,
2013-04-24 08:12:00,58.9,43.7,29.92,West,270,0.0,0.0,57,0.00,,---,0.00,VWS V14.01,2013-04-24 12:12:00,
2013-04-24 08:13:00,58.9,43.7,29.92,West,270,0.0,0.0,57,0.00,,---,0.00,VWS V14.01,2013-04-24 12:13:00,
2013-04-24 08:15:00,58.9,43.7,29.92,West,270,0.0,0.0,57,0.00,,---,0.00,VWS V14.01,2013-04-24 12:15:00,
2013-04-24 08:16:00,59.1,43.9,29.92,West,270,0.0,0.0,57,0.00,,---,0.00,VWS V14.01,2013-04-24 12:16:00,
2013-04-24 08:18:00,59.1,43.9,29.92,West,270,0.0,0.0,57,0.00,,---,0.00,VWS V14.01,2013-04-24 12:18:00,
2013-04-24 08:19:00,59.1,43.9,29.92,West,270,0.0,0.0,57,0.00,,---,0.00,VWS V14.01,2013-04-24 12:19:00,
2013-04-24 08:21:00,59.3,44.1,29.92,West,270,0.0,0.0,57,0.00,,---,0.00,VWS V14.01,2013-04-24 12:21:00,
2013-04-24 08:22:00,59.3,44.1,29.92,West,270,0.0,0.0,57,0.00,,---,0.00,VWS V14.01,2013-04-24 12:22:00,
2013-04-24 08:23:00,59.3,44.1,29.92,WSW,248,0.0,0.0,57,0.00,,---,0.00,VWS V14.01,2013-04-24 12:23:00,
2013-04-24 08:24:00,59.3,44.1,29.92,WSW,248,0.0,0.0,57,0.00,,---,0.00,VWS V14.01,2013-04-24 12:24:00,
2013-04-24 08:26:00,59.5,44.3,29.92,South,180,0.0,0.0,57,0.00,,---,0.00,VWS V14.01,2013-04-24 12:26:00,
2013-04-24 08:27:00,59.5,44.3,29.92,South,180,0.0,0.0,57,0.00,,---,0.00,VWS V14.01,2013-04-24 12:27:00,
2013-04-24 08:29:00,59.5,44.3,29.92,South,180,4.2,4.2,57,0.00,,---,0.00,VWS V14.01,2013-04-24 12:29:00,
2013-04-24 08:30:00,59.5,44.3,29.92,WNW,292,0.0,0.0,57,0.00,,---,0.00,VWS V14.01,2013-04-24 12:30:00,
2013-04-24 08:32:00,59.7,44.5,29.92,SW,225,0.0,0.0,57,0.00,,---,0.00,VWS V14.01,2013-04-24 12:32:00,
2013-04-24 08:34:00,59.7,44.0,29.91,South,180,0.0,0.0,56,0.00,,---,0.00,VWS V14.01,2013-04-24 12:34:00,
2013-04-24 08:35:00,59.8,44.1,29.91,South,180,0.0,0.0,56,0.00,,---,0.00,VWS V14.01,2013-04-24 12:35:00,
2013-04-24 08:38:00,59.8,44.1,29.92,South,180,0.0,0.0,56,0.00,,---,0.00,VWS V14.01,2013-04-24 12:38:00,
2013-04-24 08:40:00,60.0,44.7,29.92,SSW,202,0.0,0.0,57,0.00,,---,0.00,VWS V14.01,2013-04-24 12:40:00,
2013-04-24 08:41:00,60.2,44.9,29.92,SSW,202,0.0,0.0,57,0.00,,---,0.00,VWS V14.01,2013-04-24 12:41:00,
2013-04-24 08:43:00,60.2,44.9,29.92,West,270,0.0,0.0,57,0.00,,---,0.00,VWS V14.01,2013-04-24 12:43:00,
2013-04-24 08:45:00,60.2,44.9,29.92,West,270,0.0,0.0,57,0.00,,---,0.00,VWS V14.01,2013-04-24 12:45:00,
2013-04-24 08:46:00,60.2,44.9,29.92,West,270,0.0,0.0,57,0.00,,---,0.00,VWS V14.01,2013-04-24 12:46:00,
2013-04-24 08:48:00,60.4,45.1,29.92,SSW,202,4.6,4.6,57,0.00,,---,0.00,VWS V14.01,2013-04-24 12:48:00,
2013-04-24 08:49:00,60.4,45.1,29.92,SSW,202,4.6,4.6,57,0.00,,---,0.00,VWS V14.01,2013-04-24 12:49:00,
2013-04-24 08:50:00,60.4,45.1,29.93,SSW,202,4.6,4.6,57,0.00,,---,0.00,VWS V14.01,2013-04-24 12:50:00,
2013-04-24 08:51:00,60.4,45.1,29.93,SSW,202,4.6,4.6,57,0.00,,---,0.00,VWS V14.01,2013-04-24 12:51:00,
2013-04-24 08:53:00,60.6,45.3,29.92,South,180,0.0,0.0,57,0.00,,---,0.00,VWS V14.01,2013-04-24 12:53:00,
2013-04-24 08:54:00,60.6,45.3,29.92,South,180,0.0,0.0,57,0.00,,---,0.00,VWS V14.01,2013-04-24 12:54:00,
2013-04-24 08:55:00,60.7,45.4,29.92,South,180,1.7,1.7,57,0.00,,---,0.00,VWS V14.01,2013-04-24 12:55:00,
2013-04-24 08:56:00,60.7,45.4,29.92,South,180,1.7,1.7,57,0.00,,---,0.00,VWS V14.01,2013-04-24 12:56:00,
2013-04-24 08:57:00,60.9,45.6,29.92,South,180,0.0,1.7,57,0.00,,---,0.00,VWS V14.01,2013-04-24 12:57:00,
2013-04-24 08:59:00,60.9,45.6,29.92,South,180,0.0,0.0,57,0.00,,---,0.00,VWS V14.01,2013-04-24 12:59:00,
2013-04-24 09:00:00,60.9,45.6,29.92,South,180,0.0,0.0,57,0.00,,---,0.00,VWS V14.01,2013-04-24 13:00:00,
2013-04-24 09:01:00,60.9,45.6,29.92,SW,225,6.2,6.2,57,0.00,,---,0.00,VWS V14.01,2013-04-24 13:01:00,
2013-04-24 09:03:00,60.9,45.6,29.92,SW,225,6.2,6.2,57,0.00,,---,0.00,VWS V14.01,2013-04-24 13:03:00,
2013-04-24 09:04:00,60.9,45.1,29.92,SSE,158,0.0,0.0,56,0.00,,---,0.00,VWS V14.01,2013-04-24 13:04:00,
2013-04-24 09:05:00,60.9,45.1,29.92,SSE,158,0.0,0.0,56,0.00,,---,0.00,VWS V14.01,2013-04-24 13:05:00,
2013-04-24 09:07:00,61.1,45.3,29.92,SSE,158,0.0,4.4,56,0.00,,---,0.00,VWS V14.01,2013-04-24 13:07:00,
2013-04-24 09:08:00,61.3,45.5,29.92,SSE,158,0.0,4.4,56,0.00,,---,0.00,VWS V14.01,2013-04-24 13:08:00,
2013-04-24 09:10:00,61.3,45.5,29.92,SSE,158,0.0,0.0,56,0.00,,---,0.00,VWS V14.01,2013-04-24 13:10:00,
2013-04-24 09:11:00,61.3,46.0,29.91,SW,225,0.0,0.0,57,0.00,,---,0.00,VWS V14.01,2013-04-24 13:11:00,
2013-04-24 09:13:00,61.3,46.0,29.91,SSE,158,5.3,5.3,57,0.00,,---,0.00,VWS V14.01,2013-04-24 13:13:00,
2013-04-24 09:15:00,61.5,46.1,29.91,SSE,158,2.4,2.4,57,0.00,,---,0.00,VWS V14.01,2013-04-24 13:15:00,
2013-04-24 09:16:00,61.5,46.1,29.91,SSW,202,7.6,7.6,57,0.00,,---,0.00,VWS V14.01,2013-04-24 13:16:00,
2013-04-24 09:18:00,61.8,46.0,29.91,SSW,202,7.6,7.6,56,0.00,,---,0.00,VWS V14.01,2013-04-24 13:18:00,
2013-04-24 09:20:00,61.8,46.0,29.91,SSW,202,7.6,7.6,56,0.00,,---,0.00,VWS V14.01,2013-04-24 13:20:00,
2013-04-24 09:21:00,62.0,46.1,29.91,SSE,158,6.2,7.6,56,0.00,,---,0.00,VWS V14.01,2013-04-24 13:21:00,
2013-04-24 09:23:00,62.4,46.5,29.91,South,180,5.8,5.8,56,0.00,,---,0.00,VWS V14.01,2013-04-24 13:23:00,
2013-04-24 09:24:00,62.4,46.5,29.91,South,180,5.8,5.8,56,0.00,,---,0.00,VWS V14.01,2013-04-24 13:24:00,
2013-04-24 09:26:00,62.5,46.6,29.91,SW,225,5.1,5.1,56,0.00,,---,0.00,VWS V14.01,2013-04-24 13:26:00,
2013-04-24 09:28:00,62.7,46.3,29.91,SSW,202,4.2,5.1,55,0.00,,---,0.00,VWS V14.01,2013-04-24 13:28:00,
2013-04-24 09:29:00,63.3,46.9,29.91,SW,225,4.6,4.6,55,0.00,,---,0.00,VWS V14.01,2013-04-24 13:29:00,
2013-04-24 09:31:00,63.6,46.7,29.91,SW,225,4.6,4.6,54,0.00,,---,0.00,VWS V14.01,2013-04-24 13:31:00,
2013-04-24 09:33:00,63.6,46.7,29.91,SW,225,4.6,4.6,54,0.00,,---,0.00,VWS V14.01,2013-04-24 13:33:00,
2013-04-24 09:34:00,64.0,47.0,29.91,SSE,158,5.1,5.1,54,0.00,,---,0.00,VWS V14.01,2013-04-24 13:34:00,
2013-04-24 09:35:00,64.3,47.3,29.91,SSE,158,5.1,5.1,54,0.00,,---,0.00,VWS V14.01,2013-04-24 13:35:00,
2013-04-24 09:36:00,64.3,47.3,29.91,SSE,158,5.1,5.1,54,0.00,,---,0.00,VWS V14.01,2013-04-24 13:36:00,
2013-04-24 09:38:00,64.9,47.4,29.91,SSE,158,8.2,8.2,53,0.00,,---,0.00,VWS V14.01,2013-04-24 13:38:00,
2013-04-24 09:39:00,64.9,47.4,29.91,SSE,158,8.2,8.2,53,0.00,,---,0.00,VWS V14.01,2013-04-24 13:39:00,
2013-04-24 09:41:00,64.9,47.4,29.91,SSE,158,6.2,6.2,53,0.00,,---,0.00,VWS V14.01,2013-04-24 13:41:00,
2013-04-24 09:43:00,64.9,47.4,29.91,ESE,112,4.4,4.4,53,0.00,,---,0.00,VWS V14.01,2013-04-24 13:43:00,
2013-04-24 09:44:00,65.2,46.6,29.91,South,180,4.2,4.2,51,0.00,,---,0.00,VWS V14.01,2013-04-24 13:44:00,
2013-04-24 09:46:00,65.4,46.8,29.91,SW,225,5.8,5.8,51,0.00,,---,0.00,VWS V14.01,2013-04-24 13:46:00,
2013-04-24 09:47:00,65.4,46.8,29.91,SW,225,5.8,5.8,51,0.00,,---,0.00,VWS V14.01,2013-04-24 13:47:00,
2013-04-24 09:48:00,65.4,46.3,29.91,South,180,12.3,12.3,50,0.00,,---,0.00,VWS V14.01,2013-04-24 13:48:00,
2013-04-24 09:49:00,65.4,46.3,29.91,South,180,12.3,12.3,50,0.00,,---,0.00,VWS V14.01,2013-04-24 13:49:00,
2013-04-24 09:50:00,65.4,46.3,29.91,South,180,12.3,12.3,50,0.00,,---,0.00,VWS V14.01,2013-04-24 13:50:00,
2013-04-24 09:52:00,66.0,46.8,29.91,SSE,158,6.7,6.7,50,0.00,,---,0.00,VWS V14.01,2013-04-24 13:52:00,
2013-04-24 09:54:00,66.0,46.8,29.91,SSE,158,6.7,6.7,50,0.00,,---,0.00,VWS V14.01,2013-04-24 13:54:00,
2013-04-24 09:55:00,66.0,46.8,29.91,SSE,158,3.5,3.5,50,0.00,,---,0.00,VWS V14.01,2013-04-24 13:55:00,
2013-04-24 09:57:00,66.3,47.1,29.91,South,180,6.0,6.0,50,0.00,,---,0.00,VWS V14.01,2013-04-24 13:57:00,
2013-04-24 09:58:00,66.3,47.1,29.91,South,180,6.0,6.0,50,0.00,,---,0.00,VWS V14.01,2013-04-24 13:58:00,
2013-04-24 09:59:00,66.3,47.1,29.91,South,180,6.0,6.0,50,0.00,,---,0.00,VWS V14.01,2013-04-24 13:59:00,
2013-04-24 10:00:00,66.3,46.6,29.91,South,180,2.9,6.0,49,0.00,,---,0.00,VWS V14.01,2013-04-24 14:00:00,
2013-04-24 10:02:00,66.7,47.0,29.91,SSW,202,0.4,0.4,49,0.00,,---,0.00,VWS V14.01,2013-04-24 14:02:00,
2013-04-24 10:04:00,66.7,47.0,29.91,SSW,202,0.4,0.4,49,0.00,,---,0.00,VWS V14.01,2013-04-24 14:04:00,
2013-04-24 10:05:00,66.7,46.4,29.91,WSW,248,0.0,8.9,48,0.00,,---,0.00,VWS V14.01,2013-04-24 14:05:00,
2013-04-24 10:08:00,66.7,45.8,29.91,South,180,8.9,8.9,47,0.00,,---,0.00,VWS V14.01,2013-04-24 14:08:00,
2013-04-24 10:09:00,66.7,45.8,29.91,South,180,8.9,8.9,47,0.00,,---,0.00,VWS V14.01,2013-04-24 14:09:00,
2013-04-24 10:10:00,66.7,45.8,29.91,South,180,9.1,9.1,47,0.00,,---,0.00,VWS V14.01,2013-04-24 14:10:00,
2013-04-24 10:11:00,66.7,45.8,29.91,South,180,9.1,9.1,47,0.00,,---,0.00,VWS V14.01,2013-04-24 14:11:00,
2013-04-24 10:14:00,66.9,45.5,29.91,South,180,4.0,5.8,46,0.00,,---,0.00,VWS V14.01,2013-04-24 14:14:00,
2013-04-24 10:15:00,66.9,45.5,29.91,South,180,4.0,4.0,46,0.00,,---,0.00,VWS V14.01,2013-04-24 14:15:00,
2013-04-24 10:16:00,66.9,45.5,29.91,SE,135,2.2,4.0,46,0.00,,---,0.00,VWS V14.01,2013-04-24 14:16:00,
2013-04-24 10:19:00,67.0,45.6,29.91,South,180,4.2,4.2,46,0.00,,---,0.00,VWS V14.01,2013-04-24 14:19:00,
2013-04-24 10:21:00,67.2,45.7,29.90,SSE,158,6.0,6.0,46,0.00,,---,0.00,VWS V14.01,2013-04-24 14:21:00,
2013-04-24 10:24:00,67.2,45.7,29.91,SSE,158,6.0,6.0,46,0.00,,---,0.00,VWS V14.01,2013-04-24 14:24:00,
2013-04-24 10:25:00,67.4,45.9,29.91,South,180,8.9,8.9,46,0.00,,---,0.00,VWS V14.01,2013-04-24 14:25:00,
2013-04-24 10:26:00,67.4,45.9,29.91,South,180,8.9,8.9,46,0.00,,---,0.00,VWS V14.01,2013-04-24 14:26:00,
2013-04-24 10:27:00,67.4,45.9,29.91,South,180,8.9,8.9,46,0.00,,---,0.00,VWS V14.01,2013-04-24 14:27:00,
2013-04-24 10:29:00,67.9,46.4,29.93,South,180,6.4,6.4,46,0.00,,---,0.00,VWS V14.01,2013-04-24 14:29:00,
2013-04-24 10:30:00,67.9,46.4,29.93,South,180,6.4,6.4,46,0.00,,---,0.00,VWS V14.01,2013-04-24 14:30:00,
2013-04-24 10:31:00,67.9,46.4,29.93,South,180,6.4,6.4,46,0.00,,---,0.00,VWS V14.01,2013-04-24 14:31:00,
2013-04-24 10:32:00,67.9,46.4,29.92,South,180,10.0,10.0,46,0.00,,---,0.00,VWS V14.01,2013-04-24 14:32:00,
2013-04-24 10:35:00,67.9,46.4,29.93,South,180,10.0,10.0,46,0.00,,---,0.00,VWS V14.01,2013-04-24 14:35:00,
2013-04-24 10:37:00,67.9,46.4,29.93,South,180,10.0,10.0,46,0.00,,---,0.00,VWS V14.01,2013-04-24 14:37:00,
2013-04-24 10:40:00,67.9,45.2,29.93,East,90,7.8,18.7,44,0.00,,---,0.00,VWS V14.01,2013-04-24 14:40:00,
2013-04-24 10:42:00,67.8,45.7,29.93,South,180,4.6,7.8,45,0.00,,---,0.00,VWS V14.01,2013-04-24 14:42:00,
2013-04-24 10:45:00,67.6,45.5,29.93,South,180,16.3,16.3,45,0.00,,---,0.00,VWS V14.01,2013-04-24 14:45:00,
2013-04-24 10:46:00,67.6,45.5,29.93,South,180,16.3,16.3,45,0.00,,---,0.00,VWS V14.01,2013-04-24 14:46:00,
2013-04-24 10:47:00,67.6,45.5,29.93,South,180,16.3,16.3,45,0.00,,---,0.00,VWS V14.01,2013-04-24 14:47:00,
2013-04-24 10:48:00,67.6,45.5,29.93,SE,135,11.4,16.3,45,0.00,,---,0.00,VWS V14.01,2013-04-24 14:48:00,
2013-04-24 10:51:00,67.6,45.5,29.93,WSW,248,8.2,8.2,45,0.00,,---,0.00,VWS V14.01,2013-04-24 14:51:00,
2013-04-24 10:52:00,67.6,45.5,29.93,WSW,248,8.2,8.2,45,0.00,,---,0.00,VWS V14.01,2013-04-24 14:52:00,
2013-04-24 10:54:00,67.8,45.7,29.93,SW,225,6.0,6.0,45,0.00,,---,0.00,VWS V14.01,2013-04-24 14:54:00,
2013-04-24 10:56:00,67.9,45.8,29.93,South,180,13.8,13.8,45,0.00,,---,0.00,VWS V14.01,2013-04-24 14:56:00,
2013-04-24 10:57:00,68.1,46.0,29.94,WSW,248,2.9,2.9,45,0.00,,---,0.00,VWS V14.01,2013-04-24 14:57:00,
2013-04-24 10:59:00,67.9,45.8,29.93,SSE,158,4.4,4.4,45,0.00,,---,0.00,VWS V14.01,2013-04-24 14:59:00,
2013-04-24 11:01:00,68.1,46.0,29.93,SSE,158,7.1,7.1,45,0.00,,---,0.00,VWS V14.01,2013-04-24 15:01:00,
2013-04-24 11:02:00,68.1,46.0,29.94,South,180,9.3,9.3,45,0.00,,---,0.00,VWS V14.01,2013-04-24 15:02:00,
2013-04-24 11:04:00,68.1,46.0,29.94,South,180,9.3,9.3,45,0.00,,---,0.00,VWS V14.01,2013-04-24 15:04:00,
2013-04-24 11:09:00,67.9,45.8,29.94,SSW,202,15.6,15.6,45,0.00,,---,0.00,VWS V14.01,2013-04-24 15:09:00,
2013-04-24 11:10:00,67.9,45.8,29.94,South,180,4.4,15.6,45,0.00,,---,0.00,VWS V14.01,2013-04-24 15:10:00,
2013-04-24 11:11:00,67.9,45.8,29.94,South,180,4.4,4.4,45,0.00,,---,0.00,VWS V14.01,2013-04-24 15:11:00,
2013-04-24 11:14:00,67.9,45.8,29.94,ESE,112,0.0,4.4,45,0.00,,---,0.00,VWS V14.01,2013-04-24 15:14:00,
2013-04-24 11:15:00,67.9,45.8,29.94,ESE,112,0.0,0.0,45,0.00,,---,0.00,VWS V14.01,2013-04-24 15:15:00,
2013-04-24 11:16:00,67.9,45.8,29.94,ESE,112,0.0,0.0,45,0.00,,---,0.00,VWS V14.01,2013-04-24 15:16:00,
2013-04-24 11:19:00,67.9,45.8,29.94,SSE,158,7.8,7.8,45,0.00,,---,0.00,VWS V14.01,2013-04-24 15:19:00,
2013-04-24 11:20:00,67.9,45.8,29.94,SSE,158,7.8,7.8,45,0.00,,---,0.00,VWS V14.01,2013-04-24 15:20:00,
2013-04-24 11:21:00,67.9,45.8,29.94,South,180,9.3,9.3,45,0.00,,---,0.00,VWS V14.01,2013-04-24 15:21:00,
2013-04-24 11:24:00,68.1,46.0,29.93,South,180,12.5,12.5,45,0.00,,---,0.00,VWS V14.01,2013-04-24 15:24:00,
2013-04-24 11:25:00,68.1,46.0,29.93,South,180,12.5,12.5,45,0.00,,---,0.00,VWS V14.01,2013-04-24 15:25:00,
2013-04-24 11:26:00,68.1,46.0,29.94,SW,225,10.7,12.5,45,0.00,,---,0.00,VWS V14.01,2013-04-24 15:26:00,
2013-04-24 11:27:00,68.1,46.0,29.94,SW,225,10.7,10.7,45,0.00,,---,0.00,VWS V14.01,2013-04-24 15:27:00,
2013-04-24 11:30:00,68.5,46.9,29.93,SW,225,6.9,10.7,46,0.00,,---,0.00,VWS V14.01,2013-04-24 15:30:00,
2013-04-24 11:31:00,68.7,47.1,29.93,SSE,158,6.9,6.9,46,0.00,,---,0.00,VWS V14.01,2013-04-24 15:31:00,
2013-04-24 11:32:00,68.7,47.1,29.93,SSE,158,6.9,6.9,46,0.00,,---,0.00,VWS V14.01,2013-04-24 15:32:00,
2013-04-24 11:35:00,68.8,46.6,29.93,SSE,158,19.4,19.4,45,0.00,,---,0.00,VWS V14.01,2013-04-24 15:35:00,
2013-04-24 11:36:00,68.8,46.6,29.93,SSE,158,19.4,19.4,45,0.00,,---,0.00,VWS V14.01,2013-04-24 15:36:00,
2013-04-24 11:38:00,69.0,46.8,29.93,South,180,8.5,19.4,45,0.00,,---,0.00,VWS V14.01,2013-04-24 15:38:00,
2013-04-24 11:40:00,69.0,46.8,29.93,SSW,202,0.0,0.0,45,0.00,,---,0.00,VWS V14.01,2013-04-24 15:40:00,
2013-04-24 11:42:00,69.0,46.8,29.93,SE,135,5.5,5.5,45,0.00,,---,0.00,VWS V14.01,2013-04-24 15:42:00,
2013-04-24 11:43:00,69.0,46.8,29.93,SE,135,5.5,5.5,45,0.00,,---,0.00,VWS V14.01,2013-04-24 15:43:00,
2013-04-24 11:46:00,69.2,47.6,29.92,SSW,202,10.2,10.2,46,0.00,,---,0.00,VWS V14.01,2013-04-24 15:46:00,
2013-04-24 11:47:00,69.2,47.0,29.92,SW,225,7.1,7.1,45,0.00,,---,0.00,VWS V14.01,2013-04-24 15:47:00,
2013-04-24 11:48:00,69.2,47.0,29.92,SW,225,7.1,7.1,45,0.00,,---,0.00,VWS V14.01,2013-04-24 15:48:00,
2013-04-24 11:51:00,68.8,46.0,29.91,SSE,158,6.0,6.0,44,0.00,,---,0.00,VWS V14.01,2013-04-24 15:51:00,
2013-04-24 11:52:00,68.8,46.0,29.91,South,180,4.9,6.0,44,0.00,,---,0.00,VWS V14.01,2013-04-24 15:52:00,
2013-04-24 11:54:00,68.8,46.6,29.91,South,180,4.9,4.9,45,0.00,,---,0.00,VWS V14.01,2013-04-24 15:54:00,
2013-04-24 11:56:00,68.7,46.5,29.92,SSE,158,5.1,5.1,45,0.00,,---,0.00,VWS V14.01,2013-04-24 15:56:00,
2013-04-24 11:57:00,68.7,46.5,29.92,SSE,158,5.1,5.1,45,0.00,,---,0.00,VWS V14.01,2013-04-24 15:57:00,
2013-04-24 11:58:00,68.5,46.3,29.92,SSE,158,5.1,5.1,45,0.00,,---,0.00,VWS V14.01,2013-04-24 15:58:00,
2013-04-24 12:00:00,68.5,46.3,29.92,South,180,11.1,11.1,45,0.00,,---,0.00,VWS V14.01,2013-04-24 16:00:00,
2013-04-24 12:02:00,68.7,47.1,29.92,WNW,292,3.5,11.1,46,0.00,,---,0.00,VWS V14.01,2013-04-24 16:02:00,
2013-04-24 12:03:00,68.8,46.6,29.92,South,180,9.6,9.6,45,0.00,,---,0.00,VWS V14.01,2013-04-24 16:03:00,
2013-04-24 12:05:00,68.8,46.6,29.92,South,180,9.6,9.6,45,0.00,,---,0.00,VWS V14.01,2013-04-24 16:05:00,
2013-04-24 12:07:00,68.8,46.6,29.92,SSE,158,4.9,4.9,45,0.00,,---,0.00,VWS V14.01,2013-04-24 16:07:00,
2013-04-24 12:09:00,69.0,46.8,29.92,SW,225,6.0,6.0,45,0.00,,---,0.00,VWS V14.01,2013-04-24 16:09:00,
2013-04-24 12:10:00,69.0,46.8,29.91,SSE,158,4.9,6.0,45,0.00,,---,0.00,VWS V14.01,2013-04-24 16:10:00,
2013-04-24 12:12:00,69.2,47.0,29.91,SSW,202,5.8,5.8,45,0.00,,---,0.00,VWS V14.01,2013-04-24 16:12:00,
2013-04-24 12:13:00,69.2,47.0,29.92,South,180,6.7,6.7,45,0.00,,---,0.00,VWS V14.01,2013-04-24 16:13:00,
2013-04-24 12:14:00,69.2,47.0,29.92,South,180,6.7,6.7,45,0.00,,---,0.00,VWS V14.01,2013-04-24 16:14:00,
2013-04-24 12:15:00,69.2,47.0,29.91,South,180,6.7,6.7,45,0.00,,---,0.00,VWS V14.01,2013-04-24 16:15:00,
2013-04-24 12:16:00,69.7,47.4,29.91,South,180,11.8,11.8,45,0.00,,---,0.00,VWS V14.01,2013-04-24 16:16:00,
2013-04-24 12:18:00,69.7,48.0,29.91,South,180,11.8,11.8,46,0.00,,---,0.00,VWS V14.01,2013-04-24 16:18:00,
2013-04-24 12:19:00,69.6,47.3,29.91,SSW,202,13.1,13.1,45,0.00,,---,0.00,VWS V14.01,2013-04-24 16:19:00,
2013-04-24 12:20:00,69.6,47.3,29.92,SSW,202,13.1,13.1,45,0.00,,---,0.00,VWS V14.01,2013-04-24 16:20:00,
2013-04-24 12:21:00,69.7,47.4,29.92,South,180,6.2,6.2,45,0.00,,---,0.00,VWS V14.01,2013-04-24 16:21:00,
2013-04-24 12:23:00,69.7,47.4,29.92,SW,225,9.8,9.8,45,0.00,,---,0.00,VWS V14.01,2013-04-24 16:23:00,
2013-04-24 12:24:00,69.7,47.4,29.92,SW,225,9.8,9.8,45,0.00,,---,0.00,VWS V14.01,2013-04-24 16:24:00,
2013-04-24 12:26:00,69.9,47.6,29.92,SSE,158,6.0,6.0,45,0.00,,---,0.00,VWS V14.01,2013-04-24 16:26:00,
2013-04-24 12:27:00,69.9,47.6,29.92,WSW,248,4.0,4.0,45,0.00,,---,0.00,VWS V14.01,2013-04-24 16:27:00,
2013-04-24 12:29:00,69.9,47.6,29.92,SSW,202,5.5,5.5,45,0.00,,---,0.00,VWS V14.01,2013-04-24 16:29:00,
2013-04-24 12:31:00,70.3,47.4,29.92,South,180,8.5,8.5,44,0.00,,---,0.00,VWS V14.01,2013-04-24 16:31:00,
2013-04-24 12:32:00,70.3,47.4,29.92,South,180,8.5,8.5,44,0.00,,---,0.00,VWS V14.01,2013-04-24 16:32:00,
2013-04-24 12:34:00,70.3,47.4,29.92,South,180,8.5,8.5,44,0.00,,---,0.00,VWS V14.01,2013-04-24 16:34:00,
2013-04-24 12:35:00,70.3,47.4,29.92,South,180,8.5,8.5,44,0.00,,---,0.00,VWS V14.01,2013-04-24 16:35:00,
2013-04-24 12:37:00,70.3,48.0,29.91,South,180,14.0,14.0,45,0.00,,---,0.00,VWS V14.01,2013-04-24 16:37:00,
2013-04-24 12:38:00,70.5,48.2,29.91,South,180,7.3,14.0,45,0.00,,---,0.00,VWS V14.01,2013-04-24 16:38:00,
2013-04-24 12:39:00,70.5,48.2,29.92,South,180,7.3,7.3,45,0.00,,---,0.00,VWS V14.01,2013-04-24 16:39:00,
2013-04-24 12:40:00,70.5,47.6,29.91,SSW,202,5.5,7.3,44,0.00,,---,0.00,VWS V14.01,2013-04-24 16:40:00,
2013-04-24 12:42:00,70.8,47.8,29.91,WSW,248,4.4,5.5,44,0.00,,---,0.00,VWS V14.01,2013-04-24 16:42:00,
2013-04-24 12:43:00,70.8,47.8,29.92,WSW,248,4.4,4.4,44,0.00,,---,0.00,VWS V14.01,2013-04-24 16:43:00,
2013-04-24 12:44:00,70.6,47.7,29.92,SSE,158,8.5,8.5,44,0.00,,---,0.00,VWS V14.01,2013-04-24 16:44:00,
2013-04-24 12:45:00,70.8,47.8,29.92,South,180,8.2,8.5,44,0.00,,---,0.00,VWS V14.01,2013-04-24 16:45:00,
2013-04-24 12:47:00,70.8,47.2,29.91,SSW,202,12.0,12.0,43,0.00,,---,0.00,VWS V14.01,2013-04-24 16:47:00,
2013-04-24 12:48:00,70.8,47.2,29.91,SSW,202,12.0,12.0,43,0.00,,---,0.00,VWS V14.01,2013-04-24 16:48:00,
2013-04-24 12:49:00,70.6,47.0,29.92,SSW,202,12.0,12.0,43,0.00,,---,0.00,VWS V14.01,2013-04-24 16:49:00,
2013-04-24 12:50:00,70.6,47.0,29.92,SSW,202,12.0,12.0,43,0.00,,---,0.00,VWS V14.01,2013-04-24 16:50:00,
2013-04-24 12:51:00,70.5,47.6,29.92,SSE,158,10.2,10.2,44,0.00,,---,0.00,VWS V14.01,2013-04-24 16:51:00,
2013-04-24 12:53:00,70.3,47.4,29.92,SSW,202,5.3,5.3,44,0.00,,---,0.00,VWS V14.01,2013-04-24 16:53:00,
2013-04-24 12:54:00,70.3,47.4,29.92,SSW,202,5.3,5.3,44,0.00,,---,0.00,VWS V14.01,2013-04-24 16:54:00,
2013-04-24 12:56:00,70.3,47.4,29.92,SW,225,5.1,5.1,44,0.00,,---,0.00,VWS V14.01,2013-04-24 16:56:00,
2013-04-24 12:58:00,69.9,47.0,29.92,SSW,202,6.7,6.7,44,0.00,,---,0.00,VWS V14.01,2013-04-24 16:58:00,
2013-04-24 12:59:00,69.9,47.0,29.92,SSW,202,6.7,6.7,44,0.00,,---,0.00,VWS V14.01,2013-04-24 16:59:00,
2013-04-24 13:00:00,69.7,46.8,29.92,SSW,202,6.7,6.7,44,0.00,,---,0.00,VWS V14.01,2013-04-24 17:00:00,
2013-04-24 13:01:00,69.4,46.6,29.92,SSE,158,5.5,5.5,44,0.00,,---,0.00,VWS V14.01,2013-04-24 17:01:00,
2013-04-24 13:04:00,69.2,46.4,29.92,SW,225,0.0,0.0,44,0.00,,---,0.00,VWS V14.01,2013-04-24 17:04:00,
2013-04-24 13:05:00,69.2,46.4,29.93,SW,225,5.1,5.1,44,0.00,,---,0.00,VWS V14.01,2013-04-24 17:05:00,
2013-04-24 13:06:00,69.2,46.4,29.93,SW,225,5.1,5.1,44,0.00,,---,0.00,VWS V14.01,2013-04-24 17:06:00,
2013-04-24 13:07:00,69.2,46.4,29.92,SW,225,5.1,5.1,44,0.00,,---,0.00,VWS V14.01,2013-04-24 17:07:00,
2013-04-24 13:09:00,69.2,46.4,29.92,SSE,158,8.5,8.5,44,0.00,,---,0.00,VWS V14.01,2013-04-24 17:09:00,
2013-04-24 13:10:00,69.0,46.2,29.92,SSW,202,8.9,8.9,44,0.00,,---,0.00,VWS V14.01,2013-04-24 17:10:00,
2013-04-24 13:12:00,69.0,46.8,29.92,South,180,5.3,8.9,45,0.00,,---,0.00,VWS V14.01,2013-04-24 17:12:00,
2013-04-24 13:14:00,69.0,46.8,29.92,WSW,248,0.0,5.3,45,0.00,,---,0.00,VWS V14.01,2013-04-24 17:14:00,
2013-04-24 13:15:00,68.7,46.5,29.93,WNW,292,7.6,7.6,45,0.00,,---,0.00,VWS V14.01,2013-04-24 17:15:00,
2013-04-24 13:17:00,68.7,46.5,29.93,WNW,292,7.6,7.6,45,0.00,,---,0.00,VWS V14.01,2013-04-24 17:17:00,
2013-04-24 13:19:00,68.5,46.9,29.93,South,180,2.9,2.9,46,0.00,,---,0.00,VWS V14.01,2013-04-24 17:19:00,
2013-04-24 13:20:00,68.5,46.9,29.93,South,180,2.9,2.9,46,0.00,,---,0.00,VWS V14.01,2013-04-24 17:20:00,
2013-04-24 13:22:00,68.5,47.5,29.93,SSE,158,0.0,2.9,47,0.00,,---,0.00,VWS V14.01,2013-04-24 17:22:00,
2013-04-24 13:23:00,68.5,47.5,29.93,SSE,158,0.0,0.0,47,0.00,,---,0.00,VWS V14.01,2013-04-24 17:23:00,
2013-04-24 13:24:00,68.3,47.9,29.93,SW,225,6.7,6.7,48,0.00,,---,0.00,VWS V14.01,2013-04-24 17:24:00,
2013-04-24 13:25:00,68.3,47.9,29.93,SW,225,6.7,6.7,48,0.00,,---,0.00,VWS V14.01,2013-04-24 17:25:00,
2013-04-24 13:28:00,68.5,48.1,29.93,South,180,0.0,0.0,48,0.00,,---,0.00,VWS V14.01,2013-04-24 17:28:00,
2013-04-24 13:29:00,67.9,47.5,29.94,WSW,248,9.1,9.1,48,0.00,,---,0.00,VWS V14.01,2013-04-24 17:29:00,
2013-04-24 13:30:00,67.9,47.5,29.94,WSW,248,9.1,9.1,48,0.00,,---,0.00,VWS V14.01,2013-04-24 17:30:00,
2013-04-24 13:33:00,67.9,48.1,29.94,SW,225,0.0,0.0,49,0.00,,---,0.00,VWS V14.01,2013-04-24 17:33:00,
2013-04-24 13:35:00,67.9,48.1,29.95,SSW,202,7.3,7.3,49,0.00,,---,0.00,VWS V14.01,2013-04-24 17:35:00,
2013-04-24 13:38:00,67.4,49.2,29.95,West,270,5.8,7.3,52,0.00,,---,0.00,VWS V14.01,2013-04-24 17:38:00,
2013-04-24 13:39:00,67.4,49.2,29.95,West,270,5.8,5.8,52,0.00,,---,0.00,VWS V14.01,2013-04-24 17:39:00,
2013-04-24 13:40:00,66.9,49.7,29.95,WSW,248,0.2,5.8,54,0.00,,---,0.00,VWS V14.01,2013-04-24 17:40:00,
2013-04-24 13:43:00,66.3,50.2,29.95,WSW,248,5.8,5.8,56,0.00,,---,0.00,VWS V14.01,2013-04-24 17:43:00,
2013-04-24 13:44:00,66.3,51.1,29.95,West,270,4.9,5.8,58,0.00,,---,0.00,VWS V14.01,2013-04-24 17:44:00,
2013-04-24 13:45:00,66.3,51.1,29.95,West,270,4.9,4.9,58,0.00,,---,0.00,VWS V14.01,2013-04-24 17:45:00,
2013-04-24 13:46:00,66.1,51.4,29.95,SSW,202,7.1,7.1,59,0.00,,---,0.00,VWS V14.01,2013-04-24 17:46:00,
2013-04-24 13:48:00,65.8,51.5,29.94,West,270,6.2,7.1,60,0.00,,---,0.00,VWS V14.01,2013-04-24 17:48:00,
2013-04-24 13:50:00,65.6,51.4,29.95,SSW,202,2.0,6.2,60,0.00,,---,0.00,VWS V14.01,2013-04-24 17:50:00,
2013-04-24 13:51:00,65.6,51.4,29.96,SSW,202,2.0,2.0,60,0.00,,---,0.00,VWS V14.01,2013-04-24 17:51:00,
2013-04-24 13:53:00,65.4,51.6,29.96,WSW,248,3.5,3.5,61,0.00,,---,0.00,VWS V14.01,2013-04-24 17:53:00,
2013-04-24 13:55:00,65.2,51.9,29.95,West,270,6.0,6.0,62,0.00,,---,0.00,VWS V14.01,2013-04-24 17:55:00,
2013-04-24 13:56:00,65.2,51.9,29.96,West,270,6.0,6.0,62,0.00,,---,0.00,VWS V14.01,2013-04-24 17:56:00,
2013-04-24 13:59:00,64.5,52.1,29.96,WSW,248,6.4,6.4,64,0.02,,---,0.02,VWS V14.01,2013-04-24 17:59:00,
2013-04-24 14:01:00,64.5,52.1,29.96,SW,225,10.0,10.0,64,0.02,,---,0.02,VWS V14.01,2013-04-24 18:01:00,
2013-04-24 14:04:00,64.3,53.5,29.96,WSW,248,3.3,3.3,68,0.02,,---,0.02,VWS V14.01,2013-04-24 18:04:00,
2013-04-24 14:06:00,63.8,53.5,29.96,WSW,248,4.6,4.6,69,0.04,,---,0.04,VWS V14.01,2013-04-24 18:06:00,
2013-04-24 14:09:00,63.3,53.8,29.96,WSW,248,6.4,6.4,71,0.06,,---,0.06,VWS V14.01,2013-04-24 18:09:00,
2013-04-24 14:11:00,63.1,53.9,29.96,WSW,248,7.6,7.6,72,0.06,,---,0.06,VWS V14.01,2013-04-24 18:11:00,
2013-04-24 14:13:00,62.7,54.3,29.95,West,270,5.8,5.8,74,0.06,,---,0.06,VWS V14.01,2013-04-24 18:13:00,
2013-04-24 14:15:00,62.7,54.7,29.96,West,270,1.3,1.3,75,0.06,,---,0.06,VWS V14.01,2013-04-24 18:15:00,
2013-04-24 14:16:00,62.7,55.0,29.96,West,270,6.4,6.4,76,0.08,,---,0.08,VWS V14.01,2013-04-24 18:16:00,
2013-04-24 14:17:00,62.7,55.0,29.96,West,270,6.4,6.4,76,0.08,,---,0.08,VWS V14.01,2013-04-24 18:17:00,
2013-04-24 14:19:00,62.5,54.8,29.96,SSW,202,5.1,5.1,76,0.08,,---,0.08,VWS V14.01,2013-04-24 18:19:00,
2013-04-24 14:20:00,62.7,55.4,29.95,West,270,3.1,3.1,77,0.08,,---,0.08,VWS V14.01,2013-04-24 18:20:00,
2013-04-24 14:22:00,62.7,55.4,29.96,SW,225,5.3,5.3,77,0.08,,---,0.08,VWS V14.01,2013-04-24 18:22:00,
2013-04-24 14:23:00,62.7,55.4,29.96,SW,225,5.3,5.3,77,0.08,,---,0.08,VWS V14.01,2013-04-24 18:23:00,
2013-04-24 14:24:00,62.7,55.4,29.96,West,270,3.1,5.3,77,0.08,,---,0.08,VWS V14.01,2013-04-24 18:24:00,
2013-04-24 14:25:00,62.9,55.9,29.95,West,270,3.1,3.1,78,0.08,,---,0.08,VWS V14.01,2013-04-24 18:25:00,
2013-04-24 14:27:00,62.7,55.8,29.95,South,180,5.5,5.5,78,0.08,,---,0.08,VWS V14.01,2013-04-24 18:27:00,
2013-04-24 14:29:00,62.7,55.8,29.94,SSE,158,0.0,0.0,78,0.08,,---,0.08,VWS V14.01,2013-04-24 18:29:00,
2013-04-24 14:30:00,62.7,56.1,29.93,SSW,202,8.9,8.9,79,0.08,,---,0.08,VWS V14.01,2013-04-24 18:30:00,
2013-04-24 14:32:00,62.5,55.9,29.94,WSW,248,7.3,7.3,79,0.08,,---,0.08,VWS V14.01,2013-04-24 18:32:00,
2013-04-24 14:33:00,62.5,55.9,29.94,WSW,248,7.3,7.3,79,0.08,,---,0.08,VWS V14.01,2013-04-24 18:33:00,
2013-04-24 14:34:00,62.5,55.9,29.94,WSW,248,7.3,7.3,79,0.08,,---,0.08,VWS V14.01,2013-04-24 18:34:00,
2013-04-24 14:36:00,62.5,55.9,29.94,South,180,5.8,5.8,79,0.08,,---,0.08,VWS V14.01,2013-04-24 18:36:00,
2013-04-24 14:38:00,62.7,56.1,29.94,South,180,4.9,4.9,79,0.08,,---,0.08,VWS V14.01,2013-04-24 18:38:00,
2013-04-24 14:39:00,62.7,56.5,29.93,SSE,158,3.8,3.8,80,0.08,,---,0.08,VWS V14.01,2013-04-24 18:39:00,
2013-04-24 14:40:00,62.7,56.5,29.93,SSE,158,3.8,3.8,80,0.08,,---,0.08,VWS V14.01,2013-04-24 18:40:00,
2013-04-24 14:41:00,62.7,56.5,29.94,SSE,158,3.8,3.8,80,0.08,,---,0.08,VWS V14.01,2013-04-24 18:41:00,
2013-04-24 14:43:00,62.5,56.2,29.94,SSE,158,5.1,5.1,80,0.10,,---,0.10,VWS V14.01,2013-04-24 18:43:00,
2013-04-24 14:45:00,62.7,56.5,29.93,SSE,158,8.7,8.7,80,0.10,,---,0.10,VWS V14.01,2013-04-24 18:45:00,
2013-04-24 14:46:00,62.7,56.5,29.94,South,180,2.6,8.7,80,0.10,,---,0.10,VWS V14.01,2013-04-24 18:46:00,
2013-04-24 14:48:00,62.5,56.2,29.94,South,180,7.3,7.3,80,0.10,,---,0.10,VWS V14.01,2013-04-24 18:48:00,
2013-04-24 14:49:00,62.5,56.2,29.94,South,180,7.3,7.3,80,0.10,,---,0.10,VWS V14.01,2013-04-24 18:49:00,
2013-04-24 14:50:00,62.7,56.5,29.94,WSW,248,4.0,4.0,80,0.10,,---,0.10,VWS V14.01,2013-04-24 18:50:00,
2013-04-24 14:51:00,62.5,56.2,29.94,West,270,2.0,4.0,80,0.10,,---,0.10,VWS V14.01,2013-04-24 18:51:00,
2013-04-24 14:53:00,62.5,56.2,29.94,West,270,0.0,2.0,80,0.10,,---,0.10,VWS V14.01,2013-04-24 18:53:00,
2013-04-24 14:54:00,62.5,56.2,29.94,West,270,0.0,2.0,80,0.10,,---,0.10,VWS V14.01,2013-04-24 18:54:00,
2013-04-24 14:56:00,62.5,56.2,29.94,West,270,0.0,0.0,80,0.10,,---,0.10,VWS V14.01,2013-04-24 18:56:00,
2013-04-24 14:57:00,62.5,56.2,29.94,West,270,0.0,0.0,80,0.10,,---,0.10,VWS V14.01,2013-04-24 18:57:00,
2013-04-24 14:59:00,62.5,56.2,29.95,South,180,2.4,2.4,80,0.08,,---,0.10,VWS V14.01,2013-04-24 18:59:00,
2013-04-24 15:01:00,62.4,56.2,29.95,West,270,5.3,5.3,80,0.08,,---,0.10,VWS V14.01,2013-04-24 19:01:00,
2013-04-24 15:02:00,62.4,56.2,29.96,South,180,2.9,5.3,80,0.08,,---,0.10,VWS V14.01,2013-04-24 19:02:00,
2013-04-24 15:04:00,62.4,56.2,29.96,South,180,2.9,2.9,80,0.08,,---,0.10,VWS V14.01,2013-04-24 19:04:00,
2013-04-24 15:05:00,62.2,56.3,29.96,West,270,2.2,2.2,81,0.06,,---,0.10,VWS V14.01,2013-04-24 19:05:00,
2013-04-24 15:06:00,62.2,56.3,29.95,West,270,2.2,2.2,81,0.06,,---,0.10,VWS V14.01,2013-04-24 19:06:00,
2013-04-24 15:07:00,62.0,56.1,29.94,West,270,2.2,2.2,81,0.06,,---,0.10,VWS V14.01,2013-04-24 19:07:00,
2013-04-24 15:09:00,62.4,56.5,29.94,SSW,202,4.9,4.9,81,0.04,,---,0.10,VWS V14.01,2013-04-24 19:09:00,
2013-04-24 15:10:00,62.4,56.5,29.94,SSW,202,4.9,4.9,81,0.04,,---,0.10,VWS V14.01,2013-04-24 19:10:00,
2013-04-24 15:11:00,62.4,56.5,29.94,SSW,202,4.2,4.2,81,0.04,,---,0.10,VWS V14.01,2013-04-24 19:11:00,
2013-04-24 15:12:00,62.4,56.5,29.94,SSW,202,4.2,4.2,81,0.04,,---,0.10,VWS V14.01,2013-04-24 19:12:00,
2013-04-24 15:13:00,62.4,56.5,29.94,SSW,202,4.2,4.2,81,0.04,,---,0.10,VWS V14.01,2013-04-24 19:13:00,
2013-04-24 15:15:00,62.5,56.6,29.94,South,180,7.6,7.6,81,0.04,,---,0.10,VWS V14.01,2013-04-24 19:15:00,
2013-04-24 15:16:00,62.5,56.6,29.94,SSW,202,2.4,7.6,81,0.04,,---,0.10,VWS V14.01,2013-04-24 19:16:00,
2013-04-24 15:17:00,62.5,56.6,29.94,SSW,202,2.4,2.4,81,0.02,,---,0.10,VWS V14.01,2013-04-24 19:17:00,
2013-04-24 15:18:00,62.5,56.6,29.95,SW,225,2.4,2.4,81,0.02,,---,0.10,VWS V14.01,2013-04-24 19:18:00,
2013-04-24 15:21:00,62.5,56.6,29.95,WNW,292,1.7,1.7,81,0.02,,---,0.10,VWS V14.01,2013-04-24 19:21:00,
2013-04-24 15:22:00,62.5,56.6,29.95,West,270,2.2,2.2,81,0.02,,---,0.10,VWS V14.01,2013-04-24 19:22:00,
2013-04-24 15:23:00,62.4,56.5,29.95,West,270,4.0,4.0,81,0.02,,---,0.10,VWS V14.01,2013-04-24 19:23:00,
2013-04-24 15:24:00,62.4,56.5,29.95,West,270,4.0,4.0,81,0.02,,---,0.10,VWS V14.01,2013-04-24 19:24:00,
2013-04-24 15:26:00,62.5,56.6,29.95,WNW,292,7.8,7.8,81,0.02,,---,0.10,VWS V14.01,2013-04-24 19:26:00,
2013-04-24 15:27:00,62.5,56.6,29.95,WNW,292,7.8,7.8,81,0.02,,---,0.10,VWS V14.01,2013-04-24 19:27:00,
2013-04-24 15:28:00,62.5,56.9,29.95,North,0,0.0,7.8,82,0.02,,---,0.10,VWS V14.01,2013-04-24 19:28:00,
2013-04-24 15:29:00,62.4,56.8,29.95,SSW,202,2.2,2.2,82,0.02,,---,0.10,VWS V14.01,2013-04-24 19:29:00,
2013-04-24 15:31:00,62.4,56.8,29.95,SW,225,2.4,2.4,82,0.02,,---,0.10,VWS V14.01,2013-04-24 19:31:00,
2013-04-24 15:32:00,62.4,56.8,29.95,SW,225,9.3,9.3,82,0.02,,---,0.10,VWS V14.01,2013-04-24 19:32:00,
2013-04-24 15:33:00,62.4,56.8,29.95,SW,225,9.3,9.3,82,0.02,,---,0.10,VWS V14.01,2013-04-24 19:33:00,
2013-04-24 15:35:00,62.2,56.6,29.95,South,180,6.4,6.4,82,0.02,,---,0.10,VWS V14.01,2013-04-24 19:35:00,
2013-04-24 15:36:00,62.4,56.8,29.95,SSW,202,4.2,4.2,82,0.02,,---,0.10,VWS V14.01,2013-04-24 19:36:00,
2013-04-24 15:37:00,62.4,56.8,29.95,SSW,202,4.2,4.2,82,0.02,,---,0.10,VWS V14.01,2013-04-24 19:37:00,
2013-04-24 15:39:00,62.2,56.6,29.95,West,270,0.0,0.0,82,0.02,,---,0.10,VWS V14.01,2013-04-24 19:39:00,
2013-04-24 15:40:00,62.2,56.6,29.95,West,270,0.0,0.0,82,0.02,,---,0.10,VWS V14.01,2013-04-24 19:40:00,
2013-04-24 15:42:00,62.4,56.8,29.96,SW,225,4.9,4.9,82,0.02,,---,0.10,VWS V14.01,2013-04-24 19:42:00,
2013-04-24 15:44:00,62.4,56.8,29.95,SW,225,7.6,7.6,82,0.00,,---,0.10,VWS V14.01,2013-04-24 19:44:00,
2013-04-24 15:45:00,62.4,56.8,29.95,SW,225,7.6,7.6,82,0.00,,---,0.10,VWS V14.01,2013-04-24 19:45:00,
2013-04-24 15:46:00,62.2,56.6,29.95,SW,225,9.3,9.3,82,0.00,,---,0.10,VWS V14.01,2013-04-24 19:46:00,
2013-04-24 15:47:00,62.2,56.6,29.95,SW,225,9.3,9.3,82,0.00,,---,0.10,VWS V14.01,2013-04-24 19:47:00,
2013-04-24 15:49:00,62.2,56.6,29.95,South,180,9.3,9.3,82,0.00,,---,0.10,VWS V14.01,2013-04-24 19:49:00,
2013-04-24 15:50:00,62.2,56.6,29.95,South,180,9.3,9.3,82,0.00,,---,0.10,VWS V14.01,2013-04-24 19:50:00,
2013-04-24 15:52:00,62.5,56.9,29.95,SW,225,0.0,9.3,82,0.00,,---,0.10,VWS V14.01,2013-04-24 19:52:00,
2013-04-24 15:54:00,62.5,56.9,29.95,WSW,248,3.1,3.1,82,0.00,,---,0.10,VWS V14.01,2013-04-24 19:54:00,
2013-04-24 15:55:00,62.5,56.9,29.95,WSW,248,3.1,3.1,82,0.00,,---,0.10,VWS V14.01,2013-04-24 19:55:00,
2013-04-24 15:57:00,62.5,56.9,29.94,WNW,292,4.6,4.6,82,0.00,,---,0.10,VWS V14.01,2013-04-24 19:57:00,
2013-04-24 15:59:00,62.7,57.1,29.94,South,180,4.9,4.9,82,0.00,,---,0.10,VWS V14.01,2013-04-24 19:59:00,
2013-04-24 16:00:00,62.7,57.1,29.94,South,180,4.9,4.9,82,0.00,,---,0.10,VWS V14.01,2013-04-24 20:00:00,
2013-04-24 16:02:00,62.7,57.1,29.94,South,180,4.9,4.9,82,0.00,,---,0.10,VWS V14.01,2013-04-24 20:02:00,
2013-04-24 16:04:00,63.1,57.5,29.94,WSW,248,0.0,0.0,82,0.00,,---,0.10,VWS V14.01,2013-04-24 20:04:00,
2013-04-24 16:05:00,63.1,57.5,29.94,WSW,248,0.0,0.0,82,0.00,,---,0.10,VWS V14.01,2013-04-24 20:05:00,
2013-04-24 16:06:00,63.1,57.5,29.94,WSW,248,0.0,0.0,82,0.00,,---,0.10,VWS V14.01,2013-04-24 20:06:00,
2013-04-24 16:07:00,63.3,57.7,29.94,SSW,202,3.8,3.8,82,0.00,,---,0.10,VWS V14.01,2013-04-24 20:07:00,
2013-04-24 16:08:00,63.3,57.7,29.94,SSW,202,3.8,3.8,82,0.00,,---,0.10,VWS V14.01,2013-04-24 20:08:00,
2013-04-24 16:09:00,63.4,57.8,29.94,SW,225,5.1,5.1,82,0.00,,---,0.10,VWS V14.01,2013-04-24 20:09:00,
2013-04-24 16:11:00,63.8,58.2,29.94,SSW,202,6.4,6.4,82,0.00,,---,0.10,VWS V14.01,2013-04-24 20:11:00,
2013-04-24 16:12:00,63.8,58.2,29.94,SSW,202,6.4,6.4,82,0.00,,---,0.10,VWS V14.01,2013-04-24 20:12:00,
2013-04-24 16:13:00,64.0,58.4,29.94,West,270,4.2,4.2,82,0.00,,---,0.10,VWS V14.01,2013-04-24 20:13:00,
2013-04-24 16:16:00,64.3,58.7,29.94,SSW,202,4.9,4.9,82,0.00,,---,0.10,VWS V14.01,2013-04-24 20:16:00,
2013-04-24 16:17:00,64.3,58.7,29.94,SSW,202,4.9,4.9,82,0.00,,---,0.10,VWS V14.01,2013-04-24 20:17:00,
2013-04-24 16:18:00,64.3,58.3,29.94,South,180,0.0,4.9,81,0.00,,---,0.10,VWS V14.01,2013-04-24 20:18:00,
2013-04-24 16:21:00,64.3,58.3,29.94,SSE,158,2.2,2.2,81,0.00,,---,0.10,VWS V14.01,2013-04-24 20:21:00,
2013-04-24 16:22:00,64.5,58.5,29.94,South,180,3.1,3.1,81,0.00,,---,0.10,VWS V14.01,2013-04-24 20:22:00,
2013-04-24 16:23:00,64.2,57.9,29.94,SSW,202,7.3,7.3,80,0.00,,---,0.10,VWS V14.01,2013-04-24 20:23:00,
2013-04-24 16:26:00,63.8,57.5,29.93,South,180,4.9,7.3,80,0.00,,---,0.10,VWS V14.01,2013-04-24 20:26:00,
2013-04-24 16:28:00,63.8,57.2,29.93,SSE,158,4.0,4.9,79,0.00,,---,0.10,VWS V14.01,2013-04-24 20:28:00,
2013-04-24 16:29:00,63.8,57.2,29.93,SSE,158,4.0,4.0,79,0.00,,---,0.10,VWS V14.01,2013-04-24 20:29:00,
2013-04-24 16:31:00,63.6,57.0,29.93,SSW,202,6.2,6.2,79,0.00,,---,0.10,VWS V14.01,2013-04-24 20:31:00,
2013-04-24 16:32:00,63.6,57.0,29.93,SSE,158,5.1,6.2,79,0.00,,---,0.10,VWS V14.01,2013-04-24 20:32:00,
2013-04-24 16:34:00,63.8,57.2,29.93,SSE,158,5.1,5.1,79,0.00,,---,0.10,VWS V14.01,2013-04-24 20:34:00,
2013-04-24 16:36:00,63.6,57.0,29.93,SSE,158,3.3,3.3,79,0.00,,---,0.10,VWS V14.01,2013-04-24 20:36:00,
2013-04-24 16:37:00,63.6,57.0,29.92,South,180,4.0,4.0,79,0.00,,---,0.10,VWS V14.01,2013-04-24 20:37:00,
2013-04-24 16:39:00,63.8,57.2,29.93,SSE,158,5.1,5.1,79,0.00,,---,0.10,VWS V14.01,2013-04-24 20:39:00,
2013-04-24 16:40:00,63.8,57.2,29.92,SSE,158,5.1,5.1,79,0.00,,---,0.10,VWS V14.01,2013-04-24 20:40:00,
2013-04-24 16:41:00,63.8,57.5,29.92,South,180,2.9,2.9,80,0.00,,---,0.10,VWS V14.01,2013-04-24 20:41:00,
2013-04-24 16:43:00,63.8,57.5,29.92,South,180,2.9,2.9,80,0.00,,---,0.10,VWS V14.01,2013-04-24 20:43:00,
2013-04-24 16:44:00,64.0,57.7,29.92,South,180,12.0,12.0,80,0.00,,---,0.10,VWS V14.01,2013-04-24 20:44:00,
2013-04-24 16:45:00,64.0,57.4,29.92,SSW,202,11.4,11.4,79,0.00,,---,0.10,VWS V14.01,2013-04-24 20:45:00,
2013-04-24 16:46:00,64.0,57.4,29.93,SSW,202,8.0,8.0,79,0.00,,---,0.10,VWS V14.01,2013-04-24 20:46:00,
2013-04-24 16:48:00,64.0,57.4,29.93,SSW,202,8.0,8.0,79,0.00,,---,0.10,VWS V14.01,2013-04-24 20:48:00,
2013-04-24 16:49:00,64.3,57.7,29.93,South,180,6.0,8.0,79,0.00,,---,0.10,VWS V14.01,2013-04-24 20:49:00,
2013-04-24 16:50:00,64.3,57.7,29.93,South,180,6.0,8.0,79,0.00,,---,0.10,VWS V14.01,2013-04-24 20:50:00,
2013-04-24 16:51:00,64.3,57.7,29.92,South,180,6.0,6.0,79,0.00,,---,0.10,VWS V14.01,2013-04-24 20:51:00,
2013-04-24 16:52:00,64.3,57.7,29.93,South,180,5.3,6.0,79,0.00,,---,0.10,VWS V14.01,2013-04-24 20:52:00,
2013-04-24 16:54:00,64.5,57.8,29.92,SSW,202,5.5,5.5,79,0.00,,---,0.10,VWS V14.01,2013-04-24 20:54:00,
2013-04-24 16:55:00,64.5,57.8,29.93,SSW,202,5.5,5.5,79,0.00,,---,0.10,VWS V14.01,2013-04-24 20:55:00,
2013-04-24 16:56:00,64.5,57.5,29.93,South,180,7.6,7.6,78,0.00,,---,0.10,VWS V14.01,2013-04-24 20:56:00,
2013-04-24 16:57:00,64.5,57.5,29.93,South,180,7.6,7.6,78,0.00,,---,0.10,VWS V14.01,2013-04-24 20:57:00,
2013-04-24 16:59:00,64.5,57.5,29.92,SSE,158,1.3,1.3,78,0.00,,---,0.10,VWS V14.01,2013-04-24 20:59:00,
2013-04-24 17:00:00,64.5,57.5,29.92,SSE,158,1.3,1.3,78,0.00,,---,0.10,VWS V14.01,2013-04-24 21:00:00,
2013-04-24 17:01:00,64.5,57.5,29.93,SSE,158,0.4,1.3,78,0.00,,---,0.10,VWS V14.01,2013-04-24 21:01:00,
2013-04-24 17:02:00,64.5,57.5,29.93,SSE,158,0.4,1.3,78,0.00,,---,0.10,VWS V14.01,2013-04-24 21:02:00,
2013-04-24 17:05:00,64.5,57.1,29.92,SW,225,2.2,2.2,77,0.00,,---,0.10,VWS V14.01,2013-04-24 21:05:00,
2013-04-24 17:07:00,64.5,57.1,29.93,WNW,292,0.0,0.0,77,0.00,,---,0.10,VWS V14.01,2013-04-24 21:07:00,
2013-04-24 17:08:00,64.5,57.1,29.93,WNW,292,0.0,0.0,77,0.00,,---,0.10,VWS V14.01,2013-04-24 21:08:00,
2013-04-24 17:10:00,64.5,57.1,29.93,South,180,4.2,4.2,77,0.00,,---,0.10,VWS V14.01,2013-04-24 21:10:00,
2013-04-24 17:11:00,64.3,57.0,29.93,SSW,202,0.0,0.0,77,0.00,,---,0.10,VWS V14.01,2013-04-24 21:11:00,
2013-04-24 17:12:00,64.3,57.0,29.93,SSW,202,0.0,0.0,77,0.00,,---,0.10,VWS V14.01,2013-04-24 21:12:00,
2013-04-24 17:15:00,64.0,56.7,29.93,South,180,8.2,8.2,77,0.00,,---,0.10,VWS V14.01,2013-04-24 21:15:00,
2013-04-24 17:16:00,64.0,56.7,29.93,South,180,8.2,8.2,77,0.00,,---,0.10,VWS V14.01,2013-04-24 21:16:00,
2013-04-24 17:17:00,64.0,56.7,29.93,SW,225,2.4,2.4,77,0.00,,---,0.10,VWS V14.01,2013-04-24 21:17:00,
2013-04-24 17:20:00,64.2,56.8,29.94,South,180,4.6,4.6,77,0.00,,---,0.10,VWS V14.01,2013-04-24 21:20:00,
2013-04-24 17:21:00,64.2,56.8,29.94,South,180,4.6,4.6,77,0.00,,---,0.10,VWS V14.01,2013-04-24 21:21:00,
2013-04-24 17:22:00,64.0,56.7,29.93,SSW,202,5.8,5.8,77,0.00,,---,0.10,VWS V14.01,2013-04-24 21:22:00,
2013-04-24 17:23:00,64.0,56.7,29.93,SSW,202,5.8,5.8,77,0.00,,---,0.10,VWS V14.01,2013-04-24 21:23:00,
2013-04-24 17:26:00,63.8,56.5,29.93,South,180,6.4,6.4,77,0.00,,---,0.10,VWS V14.01,2013-04-24 21:26:00,
2013-04-24 17:27:00,63.6,56.3,29.94,WNW,292,4.2,4.2,77,0.00,,---,0.10,VWS V14.01,2013-04-24 21:27:00,
2013-04-24 17:28:00,63.1,55.1,29.94,WSW,248,11.8,11.8,75,0.00,,---,0.10,VWS V14.01,2013-04-24 21:28:00,
2013-04-24 17:29:00,63.1,55.1,29.94,WSW,248,11.8,11.8,75,0.00,,---,0.10,VWS V14.01,2013-04-24 21:29:00,
2013-04-24 17:31:00,62.0,53.3,29.95,WNW,292,3.1,3.1,73,0.00,,---,0.10,VWS V14.01,2013-04-24 21:31:00,
2013-04-24 17:32:00,60.9,51.1,29.95,WNW,292,3.1,3.1,70,0.00,,---,0.10,VWS V14.01,2013-04-24 21:32:00,
2013-04-24 17:33:00,60.9,51.1,29.95,WNW,292,3.1,3.1,70,0.00,,---,0.10,VWS V14.01,2013-04-24 21:33:00,
2013-04-24 17:34:00,60.0,49.8,29.95,South,180,6.2,6.2,69,0.00,,---,0.10,VWS V14.01,2013-04-24 21:34:00,
2013-04-24 17:36:00,59.3,48.8,29.95,NNW,338,4.2,6.2,68,0.00,,---,0.10,VWS V14.01,2013-04-24 21:36:00,
2013-04-24 17:37:00,59.3,48.8,29.96,NNW,338,4.2,4.2,68,0.00,,---,0.10,VWS V14.01,2013-04-24 21:37:00,
2013-04-24 17:38:00,59.3,48.8,29.96,NNW,338,4.2,4.2,68,0.00,,---,0.10,VWS V14.01,2013-04-24 21:38:00,
2013-04-24 17:39:00,58.9,48.8,29.95,West,270,0.0,0.0,69,0.00,,---,0.10,VWS V14.01,2013-04-24 21:39:00,
2013-04-24 17:41:00,58.4,48.7,29.96,WSW,248,5.3,5.3,70,0.02,,---,0.12,VWS V14.01,2013-04-24 21:41:00,
2013-04-24 17:42:00,58.2,48.5,29.96,South,180,12.7,12.7,70,0.02,,---,0.12,VWS V14.01,2013-04-24 21:42:00,
2013-04-24 17:43:00,58.2,48.5,29.96,South,180,12.7,12.7,70,0.02,,---,0.12,VWS V14.01,2013-04-24 21:43:00,
2013-04-24 17:44:00,58.2,48.5,29.96,South,180,12.7,12.7,70,0.02,,---,0.12,VWS V14.01,2013-04-24 21:44:00,
2013-04-24 17:46:00,58.0,48.7,29.95,West,270,7.3,7.3,71,0.02,,---,0.12,VWS V14.01,2013-04-24 21:46:00,
2013-04-24 17:48:00,57.7,48.0,29.96,SSW,202,5.3,5.3,70,0.02,,---,0.12,VWS V14.01,2013-04-24 21:48:00,
2013-04-24 17:49:00,57.9,48.9,29.96,WNW,292,4.4,4.4,72,0.02,,---,0.12,VWS V14.01,2013-04-24 21:49:00,
2013-04-24 17:52:00,57.7,48.0,29.96,SSW,202,2.6,2.6,70,0.02,,---,0.12,VWS V14.01,2013-04-24 21:52:00,
2013-04-24 17:53:00,58.0,49.0,29.96,SSW,202,1.3,2.6,72,0.02,,---,0.12,VWS V14.01,2013-04-24 21:53:00,
2013-04-24 17:54:00,58.0,49.0,29.96,SSW,202,1.3,2.6,72,0.02,,---,0.12,VWS V14.01,2013-04-24 21:54:00,
2013-04-24 17:55:00,58.0,49.0,29.96,SSW,202,1.3,1.3,72,0.02,,---,0.12,VWS V14.01,2013-04-24 21:55:00,
2013-04-24 17:57:00,58.2,48.8,29.96,West,270,5.8,5.8,71,0.02,,---,0.12,VWS V14.01,2013-04-24 21:57:00,
2013-04-24 17:58:00,58.2,48.8,29.96,WSW,248,7.1,7.1,71,0.02,,---,0.12,VWS V14.01,2013-04-24 21:58:00,
2013-04-24 17:59:00,58.2,48.8,29.96,WSW,248,7.1,7.1,71,0.02,,---,0.12,VWS V14.01,2013-04-24 21:59:00,
2013-04-24 18:00:00,58.2,48.8,29.96,WSW,248,7.1,7.1,71,0.02,,---,0.12,VWS V14.01,2013-04-24 22:00:00,
2013-04-24 18:02:00,58.2,48.1,29.96,NNE,22,2.9,7.1,69,0.02,,---,0.12,VWS V14.01,2013-04-24 22:02:00,
2013-04-24 18:03:00,58.2,48.1,29.96,WSW,248,5.3,5.3,69,0.02,,---,0.12,VWS V14.01,2013-04-24 22:03:00,
2013-04-24 18:04:00,58.0,47.9,29.97,WSW,248,5.3,5.3,69,0.02,,---,0.12,VWS V14.01,2013-04-24 22:04:00,
2013-04-24 18:05:00,58.0,47.9,29.97,WSW,248,5.3,5.3,69,0.02,,---,0.12,VWS V14.01,2013-04-24 22:05:00,
2013-04-24 18:07:00,57.9,47.4,29.96,WSW,248,1.5,1.5,68,0.02,,---,0.12,VWS V14.01,2013-04-24 22:07:00,
2013-04-24 18:08:00,57.7,47.2,29.97,NW,315,1.3,1.3,68,0.02,,---,0.12,VWS V14.01,2013-04-24 22:08:00,
2013-04-24 18:09:00,57.7,47.2,29.96,NW,315,1.3,1.3,68,0.02,,---,0.12,VWS V14.01,2013-04-24 22:09:00,
2013-04-24 18:11:00,57.7,47.2,29.96,NW,315,1.3,1.3,68,0.02,,---,0.12,VWS V14.01,2013-04-24 22:11:00,
2013-04-24 18:12:00,57.7,47.2,29.96,NW,315,1.3,1.3,68,0.02,,---,0.12,VWS V14.01,2013-04-24 22:12:00,
2013-04-24 18:13:00,57.5,47.4,29.96,North,0,5.1,5.1,69,0.02,,---,0.12,VWS V14.01,2013-04-24 22:13:00,
2013-04-24 18:15:00,57.3,46.8,29.97,West,270,4.0,4.0,68,0.02,,---,0.12,VWS V14.01,2013-04-24 22:15:00,
2013-04-24 18:16:00,57.3,46.8,29.97,West,270,4.0,4.0,68,0.02,,---,0.12,VWS V14.01,2013-04-24 22:16:00,
2013-04-24 18:17:00,57.1,46.7,29.97,West,270,0.0,0.0,68,0.02,,---,0.12,VWS V14.01,2013-04-24 22:17:00,
2013-04-24 18:18:00,57.1,47.0,29.97,SW,225,8.2,8.2,69,0.02,,---,0.12,VWS V14.01,2013-04-24 22:18:00,
2013-04-24 18:19:00,57.1,47.0,29.97,SW,225,8.2,8.2,69,0.02,,---,0.12,VWS V14.01,2013-04-24 22:19:00,
2013-04-24 18:20:00,57.3,47.2,29.97,SW,225,8.2,8.2,69,0.02,,---,0.12,VWS V14.01,2013-04-24 22:20:00,
2013-04-24 18:21:00,57.1,46.7,29.98,WSW,248,2.4,8.2,68,0.02,,---,0.12,VWS V14.01,2013-04-24 22:21:00,
2013-04-24 18:23:00,57.1,47.0,29.98,West,270,1.3,2.4,69,0.02,,---,0.12,VWS V14.01,2013-04-24 22:23:00,
2013-04-24 18:24:00,57.1,47.0,29.98,West,270,1.3,2.4,69,0.02,,---,0.12,VWS V14.01,2013-04-24 22:24:00,
2013-04-24 18:25:00,57.1,47.0,29.98,WSW,248,5.5,5.5,69,0.02,,---,0.12,VWS V14.01,2013-04-24 22:25:00,
2013-04-24 18:28:00,57.1,47.4,29.98,SW,225,6.7,6.7,70,0.02,,---,0.12,VWS V14.01,2013-04-24 22:28:00,
2013-04-24 18:29:00,57.1,47.4,29.98,SW,225,6.7,6.7,70,0.02,,---,0.12,VWS V14.01,2013-04-24 22:29:00,
2013-04-24 18:31:00,56.6,46.6,29.98,WSW,248,1.5,7.1,69,0.02,,---,0.12,VWS V14.01,2013-04-24 22:31:00,
2013-04-24 18:33:00,56.6,46.6,29.98,SW,225,2.6,2.6,69,0.02,,---,0.12,VWS V14.01,2013-04-24 22:33:00,
2013-04-24 18:34:00,56.6,46.6,29.98,SW,225,2.6,2.6,69,0.02,,---,0.12,VWS V14.01,2013-04-24 22:34:00,
2013-04-24 18:35:00,56.6,46.6,29.99,SW,225,2.6,2.6,69,0.02,,---,0.12,VWS V14.01,2013-04-24 22:35:00,
2013-04-24 18:37:00,56.4,46.4,29.99,West,270,4.0,4.0,69,0.02,,---,0.12,VWS V14.01,2013-04-24 22:37:00,
2013-04-24 18:38:00,56.2,46.2,29.99,WNW,292,1.7,1.7,69,0.02,,---,0.12,VWS V14.01,2013-04-24 22:38:00,
2013-04-24 18:39:00,56.2,46.2,29.99,WNW,292,1.7,1.7,69,0.02,,---,0.12,VWS V14.01,2013-04-24 22:39:00,
2013-04-24 18:40:00,56.2,46.2,29.99,WNW,292,1.7,1.7,69,0.02,,---,0.12,VWS V14.01,2013-04-24 22:40:00,
2013-04-24 18:42:00,56.4,46.8,29.99,WSW,248,1.3,1.3,70,0.00,,---,0.12,VWS V14.01,2013-04-24 22:42:00,
2013-04-24 18:43:00,56.2,46.6,29.99,WSW,248,5.8,5.8,70,0.00,,---,0.12,VWS V14.01,2013-04-24 22:43:00,
2013-04-24 18:44:00,56.1,46.1,29.99,WNW,292,1.3,1.3,69,0.00,,---,0.12,VWS V14.01,2013-04-24 22:44:00,
2013-04-24 18:45:00,56.1,46.1,29.99,WNW,292,1.3,1.3,69,0.00,,---,0.12,VWS V14.01,2013-04-24 22:45:00,
2013-04-24 18:46:00,56.1,46.1,29.99,West,270,5.8,5.8,69,0.00,,---,0.12,VWS V14.01,2013-04-24 22:46:00,
2013-04-24 18:48:00,55.9,45.9,30.00,SW,225,6.7,6.7,69,0.00,,---,0.12,VWS V14.01,2013-04-24 22:48:00,
2013-04-24 18:50:00,55.9,45.9,29.99,SW,225,6.7,6.7,69,0.00,,---,0.12,VWS V14.01,2013-04-24 22:50:00,
2013-04-24 18:52:00,55.9,46.3,30.00,WNW,292,0.0,6.7,70,0.00,,---,0.12,VWS V14.01,2013-04-24 22:52:00,
2013-04-24 18:53:00,55.7,46.1,30.00,WSW,248,1.1,1.1,70,0.00,,---,0.12,VWS V14.01,2013-04-24 22:53:00,
2013-04-24 18:55:00,55.7,46.1,30.00,WSW,248,1.1,1.1,70,0.00,,---,0.12,VWS V14.01,2013-04-24 22:55:00,
2013-04-24 18:56:00,55.7,46.1,30.00,WSW,248,2.2,2.2,70,0.00,,---,0.12,VWS V14.01,2013-04-24 22:56:00,
2013-04-24 18:57:00,55.7,46.1,30.00,SW,225,2.2,2.2,70,0.00,,---,0.12,VWS V14.01,2013-04-24 22:57:00,
2013-04-24 18:58:00,55.7,46.1,30.00,SW,225,2.2,2.2,70,0.00,,---,0.12,VWS V14.01,2013-04-24 22:58:00,
2013-04-24 19:00:00,55.7,46.1,30.00,NW,315,1.1,1.1,70,0.00,,---,0.12,VWS V14.01,2013-04-24 23:00:00,
2013-04-24 19:02:00,55.5,46.3,30.01,NW,315,2.9,2.9,71,0.00,,---,0.12,VWS V14.01,2013-04-24 23:02:00,
2013-04-24 19:03:00,55.7,46.5,30.01,SSW,202,6.4,6.4,71,0.00,,---,0.12,VWS V14.01,2013-04-24 23:03:00,
2013-04-24 19:05:00,55.7,46.5,30.01,SW,225,4.0,6.4,71,0.00,,---,0.12,VWS V14.01,2013-04-24 23:05:00,
2013-04-24 19:07:00,55.5,46.3,30.01,SW,225,4.0,4.0,71,0.00,,---,0.12,VWS V14.01,2013-04-24 23:07:00,
2013-04-24 19:09:00,55.5,46.3,30.01,SW,225,1.5,1.5,71,0.00,,---,0.12,VWS V14.01,2013-04-24 23:09:00,
2013-04-24 19:11:00,55.5,46.3,30.01,West,270,3.1,3.1,71,0.00,,---,0.12,VWS V14.01,2013-04-24 23:11:00,
2013-04-24 19:12:00,55.5,45.9,30.01,West,270,3.8,3.8,70,0.00,,---,0.12,VWS V14.01,2013-04-24 23:12:00,
2013-04-24 19:13:00,55.5,45.9,30.01,West,270,3.8,3.8,70,0.00,,---,0.12,VWS V14.01,2013-04-24 23:13:00,
2013-04-24 19:14:00,55.3,45.7,30.01,SW,225,1.5,1.5,70,0.00,,---,0.12,VWS V14.01,2013-04-24 23:14:00,
2013-04-24 19:15:00,55.3,45.7,30.01,SW,225,1.5,1.5,70,0.00,,---,0.12,VWS V14.01,2013-04-24 23:15:00,
2013-04-24 19:16:00,55.5,45.9,30.01,SW,225,0.0,0.0,70,0.00,,---,0.12,VWS V14.01,2013-04-24 23:16:00,
2013-04-24 19:17:00,55.5,45.9,30.01,SW,225,0.0,0.0,70,0.00,,---,0.12,VWS V14.01,2013-04-24 23:17:00,
2013-04-24 19:18:00,55.7,46.5,30.01,SW,225,0.0,0.0,71,0.00,,---,0.12,VWS V14.01,2013-04-24 23:18:00,
2013-04-24 19:19:00,55.7,46.5,30.01,SW,225,0.0,0.0,71,0.00,,---,0.12,VWS V14.01,2013-04-24 23:19:00,
2013-04-24 19:20:00,55.7,46.5,30.01,SW,225,0.0,0.0,71,0.00,,---,0.12,VWS V14.01,2013-04-24 23:20:00,
2013-04-24 19:22:00,55.7,46.1,30.01,SW,225,4.4,4.4,70,0.00,,---,0.12,VWS V14.01,2013-04-24 23:22:00,
2013-04-24 19:23:00,55.7,46.1,30.01,SW,225,4.4,4.4,70,0.00,,---,0.12,VWS V14.01,2013-04-24 23:23:00,
2013-04-24 19:24:00,55.5,45.9,30.01,SW,225,4.4,4.4,70,0.00,,---,0.12,VWS V14.01,2013-04-24 23:24:00,
2013-04-24 19:25:00,55.5,45.9,30.01,SW,225,4.4,4.4,70,0.00,,---,0.12,VWS V14.01,2013-04-24 23:25:00,
2013-04-24 19:26:00,55.3,45.7,30.01,SW,225,6.2,6.2,70,0.00,,---,0.12,VWS V14.01,2013-04-24 23:26:00,
2013-04-24 19:28:00,55.2,45.2,30.01,WSW,248,0.0,6.2,69,0.00,,---,0.12,VWS V14.01,2013-04-24 23:28:00,
2013-04-24 19:29:00,55.2,45.2,30.01,WSW,248,0.6,0.6,69,0.00,,---,0.12,VWS V14.01,2013-04-24 23:29:00,
2013-04-24 19:30:00,55.2,45.2,30.01,WSW,248,0.6,0.6,69,0.00,,---,0.12,VWS V14.01,2013-04-24 23:30:00,
2013-04-24 19:31:00,55.2,45.2,30.01,WSW,248,0.6,0.6,69,0.00,,---,0.12,VWS V14.01,2013-04-24 23:31:00,
2013-04-24 19:33:00,55.0,45.0,30.02,West,270,3.3,3.3,69,0.00,,---,0.12,VWS V14.01,2013-04-24 23:33:00,
2013-04-24 19:34:00,55.0,45.0,30.02,West,270,3.3,3.3,69,0.00,,---,0.12,VWS V14.01,2013-04-24 23:34:00,
2013-04-24 19:35:00,55.0,45.0,30.02,West,270,3.3,3.3,69,0.00,,---,0.12,VWS V14.01,2013-04-24 23:35:00,
2013-04-24 19:36:00,55.0,45.0,30.02,West,270,3.3,3.3,69,0.00,,---,0.12,VWS V14.01,2013-04-24 23:36:00,
2013-04-24 19:39:00,54.8,44.8,30.02,West,270,4.9,4.9,69,0.00,,---,0.12,VWS V14.01,2013-04-24 23:39:00,
2013-04-24 19:40:00,54.6,44.7,30.02,WSW,248,0.0,0.0,69,0.00,,---,0.12,VWS V14.01,2013-04-24 23:40:00,
2013-04-24 19:42:00,54.6,44.7,30.02,WSW,248,0.0,0.0,69,0.00,,---,0.12,VWS V14.01,2013-04-24 23:42:00,
2013-04-24 19:44:00,54.8,44.8,30.02,WSW,248,0.0,0.0,69,0.00,,---,0.12,VWS V14.01,2013-04-24 23:44:00,
2013-04-24 19:46:00,54.8,44.8,30.02,WSW,248,0.0,0.0,69,0.00,,---,0.12,VWS V14.01,2013-04-24 23:46:00,
2013-04-24 19:47:00,54.8,44.8,30.02,WSW,248,0.0,0.0,69,0.00,,---,0.12,VWS V14.01,2013-04-24 23:47:00,
2013-04-24 19:49:00,54.8,44.8,30.03,WSW,248,0.0,0.0,69,0.00,,---,0.12,VWS V14.01,2013-04-24 23:49:00,
2013-04-24 19:51:00,54.8,45.2,30.02,WSW,248,1.3,1.3,70,0.00,,---,0.12,VWS V14.01,2013-04-24 23:51:00,
2013-04-24 19:52:00,54.8,45.2,30.03,West,270,0.0,1.3,70,0.00,,---,0.12,VWS V14.01,2013-04-24 23:52:00,
2013-04-24 19:54:00,55.0,45.4,30.03,West,270,0.0,0.0,70,0.00,,---,0.12,VWS V14.01,2013-04-24 23:54:00,
2013-04-24 19:55:00,55.0,45.4,30.03,West,270,0.0,0.0,70,0.00,,---,0.12,VWS V14.01,2013-04-24 23:55:00,
2013-04-24 19:56:00,55.0,45.4,30.03,West,270,0.0,0.0,70,0.00,,---,0.12,VWS V14.01,2013-04-24 23:56:00,
2013-04-24 19:58:00,55.0,45.4,30.03,SSW,202,0.0,0.0,70,0.00,,---,0.12,VWS V14.01,2013-04-24 23:58:00,
2013-04-24 19:59:00,55.0,45.4,30.03,WSW,248,0.0,0.0,70,0.00,,---,0.12,VWS V14.01,2013-04-24 23:59:00,
2013-04-24 20:00:00,55.0,45.4,30.03,WSW,248,0.0,0.0,70,0.00,,---,0.12,VWS V14.01,2013-04-25 00:00:00,
2013-04-24 20:01:00,55.0,45.4,30.04,WSW,248,0.0,0.0,70,0.00,,---,0.12,VWS V14.01,2013-04-25 00:01:00,
2013-04-24 20:03:00,55.0,45.4,30.04,WSW,248,0.0,0.0,70,0.00,,---,0.12,VWS V14.01,2013-04-25 00:03:00,
2013-04-24 20:05:00,54.8,44.8,30.04,WSW,248,0.0,0.0,69,0.00,,---,0.12,VWS V14.01,2013-04-25 00:05:00,
2013-04-24 20:07:00,54.8,44.8,30.04,WSW,248,0.0,0.0,69,0.00,,---,0.12,VWS V14.01,2013-04-25 00:07:00,
2013-04-24 20:08:00,54.8,44.8,30.04,SW,225,0.0,0.0,69,0.00,,---,0.12,VWS V14.01,2013-04-25 00:08:00,
2013-04-24 20:10:00,54.6,44.7,30.04,WSW,248,0.0,0.0,69,0.00,,---,0.12,VWS V14.01,2013-04-25 00:10:00,
2013-04-24 20:11:00,54.6,44.7,30.04,WSW,248,0.0,0.0,69,0.00,,---,0.12,VWS V14.01,2013-04-25 00:11:00,
2013-04-24 20:12:00,54.3,44.0,30.04,WSW,248,0.0,0.0,68,0.00,,---,0.12,VWS V14.01,2013-04-25 00:12:00,
2013-04-24 20:13:00,54.3,44.0,30.04,WSW,248,0.0,0.0,68,0.00,,---,0.12,VWS V14.01,2013-04-25 00:13:00,
2013-04-24 20:15:00,54.3,44.4,30.05,WSW,248,0.0,0.0,69,0.02,,---,0.15,VWS V14.01,2013-04-25 00:15:00,
2013-04-24 20:16:00,54.4,44.1,30.05,NW,315,2.4,2.4,68,0.02,,---,0.15,VWS V14.01,2013-04-25 00:16:00,
2013-04-24 20:17:00,54.4,44.1,30.05,NW,315,2.4,2.4,68,0.02,,---,0.15,VWS V14.01,2013-04-25 00:17:00,
2013-04-24 20:18:00,54.4,44.1,30.05,NW,315,2.4,2.4,68,0.02,,---,0.15,VWS V14.01,2013-04-25 00:18:00,
2013-04-24 20:21:00,54.1,43.8,30.06,West,270,0.0,0.0,68,0.02,,---,0.15,VWS V14.01,2013-04-25 00:21:00,
2013-04-24 20:22:00,54.1,44.2,30.06,West,270,2.0,2.0,69,0.02,,---,0.15,VWS V14.01,2013-04-25 00:22:00,
2013-04-24 20:23:00,54.1,44.2,30.06,West,270,2.0,2.0,69,0.02,,---,0.15,VWS V14.01,2013-04-25 00:23:00,
2013-04-24 20:26:00,54.1,44.2,30.06,WSW,248,0.0,0.0,69,0.02,,---,0.15,VWS V14.01,2013-04-25 00:26:00,
2013-04-24 20:28:00,54.1,44.2,30.06,WSW,248,3.8,3.8,69,0.02,,---,0.15,VWS V14.01,2013-04-25 00:28:00,
2013-04-24 20:29:00,54.1,44.2,30.06,WSW,248,3.8,3.8,69,0.02,,---,0.15,VWS V14.01,2013-04-25 00:29:00,
2013-04-24 20:32:00,53.9,44.0,30.07,WSW,248,0.6,0.6,69,0.02,,---,0.15,VWS V14.01,2013-04-25 00:32:00,
2013-04-24 20:33:00,53.7,43.8,30.06,WSW,248,1.3,1.3,69,0.02,,---,0.15,VWS V14.01,2013-04-25 00:33:00,
2013-04-24 20:34:00,53.7,43.8,30.07,WSW,248,1.3,1.3,69,0.02,,---,0.15,VWS V14.01,2013-04-25 00:34:00,
2013-04-24 20:35:00,53.7,43.8,30.07,WSW,248,1.3,1.3,69,0.02,,---,0.15,VWS V14.01,2013-04-25 00:35:00,
2013-04-24 20:38:00,53.7,43.8,30.07,WSW,248,0.0,0.0,69,0.02,,---,0.15,VWS V14.01,2013-04-25 00:38:00,
2013-04-24 20:39:00,53.7,43.8,30.07,WSW,248,0.0,0.0,69,0.02,,---,0.15,VWS V14.01,2013-04-25 00:39:00,
2013-04-24 20:41:00,53.4,43.5,30.07,WSW,248,0.0,0.0,69,0.02,,---,0.15,VWS V14.01,2013-04-25 00:41:00,
2013-04-24 20:43:00,53.4,43.5,30.07,WSW,248,0.0,0.0,69,0.02,,---,0.15,VWS V14.01,2013-04-25 00:43:00,
2013-04-24 20:44:00,53.4,43.5,30.07,WSW,248,0.0,0.0,69,0.02,,---,0.15,VWS V14.01,2013-04-25 00:44:00,
2013-04-24 20:46:00,53.2,43.3,30.07,WSW,248,0.0,0.0,69,0.02,,---,0.15,VWS V14.01,2013-04-25 00:46:00,
2013-04-24 20:49:00,53.0,43.1,30.07,WSW,248,0.0,0.0,69,0.02,,---,0.15,VWS V14.01,2013-04-25 00:49:00,
2013-04-24 20:51:00,52.8,42.9,30.08,WSW,248,1.5,1.5,69,0.02,,---,0.15,VWS V14.01,2013-04-25 00:51:00,
2013-04-24 20:54:00,52.6,42.7,30.09,WSW,248,0.0,0.0,69,0.02,,---,0.15,VWS V14.01,2013-04-25 00:54:00,
2013-04-24 20:56:00,52.6,42.7,30.08,WSW,248,0.0,0.0,69,0.02,,---,0.15,VWS V14.01,2013-04-25 00:56:00,
2013-04-24 20:59:00,52.6,42.7,30.09,WSW,248,0.0,0.0,69,0.02,,---,0.15,VWS V14.01,2013-04-25 00:59:00,
2013-04-24 21:00:00,52.6,42.7,30.09,WSW,248,0.0,0.0,69,0.02,,---,0.15,VWS V14.01,2013-04-25 01:00:00,
2013-04-24 21:01:00,52.8,42.9,30.09,WSW,248,0.0,0.0,69,0.02,,---,0.15,VWS V14.01,2013-04-25 01:01:00,
2013-04-24 21:02:00,52.8,42.9,30.09,WSW,248,0.0,0.0,69,0.02,,---,0.15,VWS V14.01,2013-04-25 01:02:00,
2013-04-24 21:05:00,52.5,42.6,30.09,WSW,248,0.0,0.0,69,0.02,,---,0.15,VWS V14.01,2013-04-25 01:05:00,
2013-04-24 21:08:00,52.5,43.0,30.09,WSW,248,0.0,0.0,70,0.02,,---,0.15,VWS V14.01,2013-04-25 01:08:00,
2013-04-24 21:10:00,52.5,42.6,30.09,WSW,248,0.0,0.0,69,0.02,,---,0.15,VWS V14.01,2013-04-25 01:10:00,
2013-04-24 21:13:00,52.3,42.5,30.10,WSW,248,0.0,0.0,69,0.02,,---,0.15,VWS V14.01,2013-04-25 01:13:00,
2013-04-24 21:16:00,52.3,42.8,30.10,WSW,248,0.0,0.0,70,0.00,,---,0.15,VWS V14.01,2013-04-25 01:16:00,
2013-04-24 21:18:00,52.3,43.2,30.10,WSW,248,0.0,0.0,71,0.00,,---,0.15,VWS V14.01,2013-04-25 01:18:00,
2013-04-24 21:19:00,52.3,43.2,30.10,WSW,248,0.0,0.0,71,0.00,,---,0.15,VWS V14.01,2013-04-25 01:19:00,
2013-04-24 21:21:00,52.3,43.2,30.10,WSW,248,0.0,0.0,71,0.00,,---,0.15,VWS V14.01,2013-04-25 01:21:00,
2013-04-24 21:23:00,52.3,43.2,30.10,WSW,248,0.0,0.0,71,0.00,,---,0.15,VWS V14.01,2013-04-25 01:23:00,
2013-04-24 21:24:00,52.3,42.8,30.10,WSW,248,0.0,0.0,70,0.00,,---,0.15,VWS V14.01,2013-04-25 01:24:00,
2013-04-24 21:26:00,52.3,42.8,30.11,WSW,248,0.0,0.0,70,0.00,,---,0.15,VWS V14.01,2013-04-25 01:26:00,
2013-04-24 21:27:00,52.3,42.8,30.11,WSW,248,0.0,0.0,70,0.00,,---,0.15,VWS V14.01,2013-04-25 01:27:00,
2013-04-24 21:28:00,52.3,42.8,30.11,WSW,248,0.0,0.0,70,0.00,,---,0.15,VWS V14.01,2013-04-25 01:28:00,
2013-04-24 21:29:00,52.3,42.8,30.11,WSW,248,0.0,0.0,70,0.00,,---,0.15,VWS V14.01,2013-04-25 01:29:00,
2013-04-24 21:30:00,52.3,42.8,30.11,WSW,248,0.0,0.0,70,0.00,,---,0.15,VWS V14.01,2013-04-25 01:30:00,
2013-04-24 21:31:00,52.3,42.8,30.11,WSW,248,0.0,0.0,70,0.00,,---,0.15,VWS V14.01,2013-04-25 01:31:00,
2013-04-24 21:32:00,52.3,42.8,30.11,WSW,248,0.0,0.0,70,0.00,,---,0.15,VWS V14.01,2013-04-25 01:32:00,
2013-04-24 21:34:00,52.3,42.8,30.11,WSW,248,0.0,0.0,70,0.00,,---,0.15,VWS V14.01,2013-04-25 01:34:00,
2013-04-24 21:35:00,52.3,42.8,30.11,WSW,248,0.0,0.0,70,0.00,,---,0.15,VWS V14.01,2013-04-25 01:35:00,
2013-04-24 21:36:00,52.3,42.8,30.11,WSW,248,0.0,0.0,70,0.00,,---,0.15,VWS V14.01,2013-04-25 01:36:00,
2013-04-24 21:37:00,52.1,42.2,30.12,WSW,248,0.0,0.0,69,0.00,,---,0.15,VWS V14.01,2013-04-25 01:37:00,
2013-04-24 21:40:00,51.9,42.1,30.11,WSW,248,0.0,0.0,69,0.00,,---,0.15,VWS V14.01,2013-04-25 01:40:00,
2013-04-24 21:41:00,51.9,42.1,30.11,WSW,248,0.0,0.0,69,0.00,,---,0.15,VWS V14.01,2013-04-25 01:41:00,
2013-04-24 21:42:00,51.9,42.1,30.11,WSW,248,0.0,0.0,69,0.00,,---,0.15,VWS V14.01,2013-04-25 01:42:00,
2013-04-24 21:43:00,51.9,42.1,30.11,WSW,248,0.0,0.0,69,0.00,,---,0.15,VWS V14.01,2013-04-25 01:43:00,
2013-04-24 21:45:00,51.7,41.9,30.11,WSW,248,0.0,0.0,69,0.00,,---,0.15,VWS V14.01,2013-04-25 01:45:00,
2013-04-24 21:46:00,51.7,41.9,30.11,WSW,248,0.0,0.0,69,0.00,,---,0.15,VWS V14.01,2013-04-25 01:46:00,
2013-04-24 21:47:00,51.7,41.9,30.11,WSW,248,0.0,0.0,69,0.00,,---,0.15,VWS V14.01,2013-04-25 01:47:00,
2013-04-24 21:48:00,51.7,41.9,30.11,WSW,248,0.0,0.0,69,0.00,,---,0.15,VWS V14.01,2013-04-25 01:48:00,
2013-04-24 21:50:00,51.9,42.1,30.12,WSW,248,0.0,0.0,69,0.00,,---,0.15,VWS V14.01,2013-04-25 01:50:00,
2013-04-24 21:51:00,51.7,41.9,30.12,WSW,248,0.0,0.0,69,0.00,,---,0.15,VWS V14.01,2013-04-25 01:51:00,
2013-04-24 21:52:00,51.9,42.1,30.12,WSW,248,0.0,0.0,69,0.00,,---,0.15,VWS V14.01,2013-04-25 01:52:00,
2013-04-24 21:53:00,51.9,42.1,30.12,WSW,248,0.0,0.0,69,0.00,,---,0.15,VWS V14.01,2013-04-25 01:53:00,
2013-04-24 21:55:00,51.9,42.1,30.12,WSW,248,0.0,0.0,69,0.00,,---,0.15,VWS V14.01,2013-04-25 01:55:00,
2013-04-24 21:56:00,51.9,42.1,30.12,WSW,248,0.0,0.0,69,0.00,,---,0.15,VWS V14.01,2013-04-25 01:56:00,
2013-04-24 21:57:00,51.9,42.1,30.12,WSW,248,0.0,0.0,69,0.00,,---,0.15,VWS V14.01,2013-04-25 01:57:00,
2013-04-24 21:58:00,51.9,42.1,30.12,WSW,248,0.0,0.0,69,0.00,,---,0.15,VWS V14.01,2013-04-25 01:58:00,
2013-04-24 21:59:00,51.7,41.9,30.12,WSW,248,0.0,0.0,69,0.00,,---,0.15,VWS V14.01,2013-04-25 01:59:00,
2013-04-24 22:01:00,51.7,41.9,30.12,WSW,248,0.0,0.0,69,0.00,,---,0.15,VWS V14.01,2013-04-25 02:01:00,
2013-04-24 22:02:00,51.7,41.9,30.12,WSW,248,0.0,0.0,69,0.00,,---,0.15,VWS V14.01,2013-04-25 02:02:00,
2013-04-24 22:03:00,51.7,41.9,30.12,ESE,112,0.0,0.0,69,0.00,,---,0.15,VWS V14.01,2013-04-25 02:03:00,
2013-04-24 22:04:00,51.7,41.9,30.13,ESE,112,0.0,0.0,69,0.00,,---,0.15,VWS V14.01,2013-04-25 02:04:00,
2013-04-24 22:07:00,51.7,41.9,30.13,ESE,112,0.0,0.0,69,0.00,,---,0.15,VWS V14.01,2013-04-25 02:07:00,
2013-04-24 22:08:00,51.6,41.4,30.13,ESE,112,0.0,0.0,68,0.00,,---,0.15,VWS V14.01,2013-04-25 02:08:00,
2013-04-24 22:10:00,51.6,41.4,30.13,SE,135,0.0,0.0,68,0.00,,---,0.15,VWS V14.01,2013-04-25 02:10:00,
2013-04-24 22:12:00,51.4,41.2,30.13,SE,135,0.0,0.0,68,0.00,,---,0.15,VWS V14.01,2013-04-25 02:12:00,
2013-04-24 22:13:00,51.4,41.2,30.13,SE,135,0.0,0.0,68,0.00,,---,0.15,VWS V14.01,2013-04-25 02:13:00,
2013-04-24 22:14:00,51.4,41.2,30.13,SE,135,0.0,0.0,68,0.00,,---,0.15,VWS V14.01,2013-04-25 02:14:00,
2013-04-24 22:15:00,51.4,41.2,30.13,SE,135,0.0,0.0,68,0.00,,---,0.15,VWS V14.01,2013-04-25 02:15:00,
2013-04-24 22:17:00,51.4,40.8,30.13,SE,135,0.0,0.0,67,0.00,,---,0.15,VWS V14.01,2013-04-25 02:17:00,
2013-04-24 22:19:00,51.4,40.8,30.14,SE,135,0.0,0.0,67,0.00,,---,0.15,VWS V14.01,2013-04-25 02:19:00,
2013-04-24 22:21:00,51.2,40.6,30.14,SE,135,3.8,3.8,67,0.00,,---,0.15,VWS V14.01,2013-04-25 02:21:00,
2013-04-24 22:22:00,51.2,40.6,30.14,SE,135,0.0,0.0,67,0.00,,---,0.15,VWS V14.01,2013-04-25 02:22:00,
2013-04-24 22:24:00,51.2,40.6,30.14,SE,135,0.0,0.0,67,0.00,,---,0.15,VWS V14.01,2013-04-25 02:24:00,
2013-04-24 22:26:00,51.0,40.4,30.14,SE,135,0.0,0.0,67,0.00,,---,0.15,VWS V14.01,2013-04-25 02:26:00,
2013-04-24 22:28:00,51.0,40.4,30.14,SE,135,0.0,0.0,67,0.00,,---,0.15,VWS V14.01,2013-04-25 02:28:00,
2013-04-24 22:29:00,51.0,40.4,30.14,SE,135,0.0,0.0,67,0.00,,---,0.15,VWS V14.01,2013-04-25 02:29:00,
2013-04-24 22:30:00,51.0,40.4,30.14,SE,135,0.0,0.0,67,0.00,,---,0.15,VWS V14.01,2013-04-25 02:30:00,
2013-04-24 22:32:00,51.0,40.4,30.14,SE,135,0.0,0.0,67,0.00,,---,0.15,VWS V14.01,2013-04-25 02:32:00,
2013-04-24 22:33:00,50.8,40.2,30.14,SE,135,0.0,0.0,67,0.00,,---,0.15,VWS V14.01,2013-04-25 02:33:00,
2013-04-24 22:34:00,51.0,40.4,30.14,SE,135,0.0,0.0,67,0.00,,---,0.15,VWS V14.01,2013-04-25 02:34:00,
2013-04-24 22:35:00,51.0,40.4,30.14,SE,135,0.0,0.0,67,0.00,,---,0.15,VWS V14.01,2013-04-25 02:35:00,
2013-04-24 22:37:00,51.0,40.4,30.14,SE,135,0.0,0.0,67,0.00,,---,0.15,VWS V14.01,2013-04-25 02:37:00,
2013-04-24 22:38:00,51.0,40.4,30.14,SE,135,0.0,0.0,67,0.00,,---,0.15,VWS V14.01,2013-04-25 02:38:00,
2013-04-24 22:39:00,50.8,40.2,30.14,SE,135,0.0,0.0,67,0.00,,---,0.15,VWS V14.01,2013-04-25 02:39:00,
2013-04-24 22:40:00,50.8,40.2,30.14,SE,135,0.0,0.0,67,0.00,,---,0.15,VWS V14.01,2013-04-25 02:40:00,
2013-04-24 22:41:00,50.8,40.2,30.14,SE,135,0.0,0.0,67,0.00,,---,0.15,VWS V14.01,2013-04-25 02:41:00,
2013-04-24 22:42:00,50.8,40.2,30.14,SE,135,0.0,0.0,67,0.00,,---,0.15,VWS V14.01,2013-04-25 02:42:00,
2013-04-24 22:44:00,50.8,40.2,30.14,SE,135,0.0,0.0,67,0.00,,---,0.15,VWS V14.01,2013-04-25 02:44:00,
2013-04-24 22:46:00,50.7,40.2,30.15,SE,135,0.0,0.0,67,0.00,,---,0.15,VWS V14.01,2013-04-25 02:46:00,
2013-04-24 22:48:00,51.0,40.4,30.15,SE,135,0.0,0.0,67,0.00,,---,0.15,VWS V14.01,2013-04-25 02:48:00,
2013-04-24 22:49:00,50.8,39.9,30.15,SE,135,0.8,0.8,66,0.00,,---,0.15,VWS V14.01,2013-04-25 02:49:00,
2013-04-24 22:50:00,50.8,39.9,30.15,SE,135,0.8,0.8,66,0.00,,---,0.15,VWS V14.01,2013-04-25 02:50:00,
2013-04-24 22:51:00,50.8,39.9,30.15,SE,135,0.0,0.8,66,0.00,,---,0.15,VWS V14.01,2013-04-25 02:51:00,
2013-04-24 22:53:00,50.8,40.2,30.15,SE,135,0.0,0.0,67,0.00,,---,0.15,VWS V14.01,2013-04-25 02:53:00,
2013-04-24 22:55:00,50.7,39.8,30.15,SE,135,0.0,0.0,66,0.00,,---,0.15,VWS V14.01,2013-04-25 02:55:00,
2013-04-24 22:56:00,50.7,39.8,30.14,ESE,112,0.0,0.0,66,0.00,,---,0.15,VWS V14.01,2013-04-25 02:56:00,
2013-04-24 22:57:00,50.7,39.8,30.14,ESE,112,0.0,0.0,66,0.00,,---,0.15,VWS V14.01,2013-04-25 02:57:00,
2013-04-24 22:58:00,50.7,39.8,30.15,ESE,112,0.0,0.0,66,0.00,,---,0.15,VWS V14.01,2013-04-25 02:58:00,
2013-04-24 23:00:00,51.0,40.1,30.15,ESE,112,0.0,0.0,66,0.00,,---,0.15,VWS V14.01,2013-04-25 03:00:00,
2013-04-24 23:01:00,51.0,40.1,30.15,ESE,112,0.0,0.0,66,0.00,,---,0.15,VWS V14.01,2013-04-25 03:01:00,
2013-04-24 23:02:00,51.0,40.1,30.15,ESE,112,0.0,0.0,66,0.00,,---,0.15,VWS V14.01,2013-04-25 03:02:00,
2013-04-24 23:03:00,50.8,40.2,30.14,ESE,112,0.0,0.0,67,0.00,,---,0.15,VWS V14.01,2013-04-25 03:03:00,
2013-04-24 23:06:00,50.8,39.9,30.14,ESE,112,0.0,0.0,66,0.00,,---,0.15,VWS V14.01,2013-04-25 03:06:00,
2013-04-24 23:08:00,50.7,39.8,30.14,ESE,112,0.0,0.0,66,0.00,,---,0.15,VWS V14.01,2013-04-25 03:08:00,
2013-04-24 23:11:00,50.7,39.8,30.14,ESE,112,0.0,0.0,66,0.00,,---,0.15,VWS V14.01,2013-04-25 03:11:00,
2013-04-24 23:12:00,50.7,39.8,30.14,ESE,112,0.0,0.0,66,0.00,,---,0.15,VWS V14.01,2013-04-25 03:12:00,
2013-04-24 23:13:00,50.7,39.4,30.14,ESE,112,1.7,1.7,65,0.00,,---,0.15,VWS V14.01,2013-04-25 03:13:00,
2013-04-24 23:14:00,50.7,39.4,30.14,ESE,112,1.7,1.7,65,0.00,,---,0.15,VWS V14.01,2013-04-25 03:14:00,
2013-04-24 23:16:00,50.5,38.8,30.14,West,270,0.0,1.7,64,0.00,,---,0.15,VWS V14.01,2013-04-25 03:16:00,
2013-04-24 23:17:00,50.3,38.6,30.14,West,270,0.0,0.0,64,0.00,,---,0.15,VWS V14.01,2013-04-25 03:17:00,
2013-04-24 23:18:00,50.3,38.6,30.14,West,270,0.0,0.0,64,0.00,,---,0.15,VWS V14.01,2013-04-25 03:18:00,
2013-04-24 23:19:00,50.3,38.6,30.14,West,270,0.0,0.0,64,0.00,,---,0.15,VWS V14.01,2013-04-25 03:19:00,
2013-04-24 23:21:00,50.1,38.4,30.14,West,270,0.0,0.0,64,0.00,,---,0.15,VWS V14.01,2013-04-25 03:21:00,
2013-04-24 23:23:00,50.1,38.4,30.15,West,270,0.0,0.0,64,0.00,,---,0.15,VWS V14.01,2013-04-25 03:23:00,
2013-04-24 23:24:00,50.1,38.4,30.14,West,270,0.0,0.0,64,0.00,,---,0.15,VWS V14.01,2013-04-25 03:24:00,
2013-04-24 23:27:00,49.9,37.8,30.15,West,270,0.0,0.0,63,0.00,,---,0.15,VWS V14.01,2013-04-25 03:27:00,
2013-04-24 23:28:00,49.9,38.2,30.15,West,270,0.0,0.0,64,0.00,,---,0.15,VWS V14.01,2013-04-25 03:28:00,
2013-04-24 23:29:00,49.9,38.2,30.15,West,270,0.0,0.0,64,0.00,,---,0.15,VWS V14.01,2013-04-25 03:29:00,
2013-04-24 23:30:00,49.9,38.2,30.15,West,270,0.0,0.0,64,0.00,,---,0.15,VWS V14.01,2013-04-25 03:30:00,
2013-04-24 23:32:00,49.9,38.2,30.14,West,270,0.0,0.0,64,0.00,,---,0.15,VWS V14.01,2013-04-25 03:32:00,
2013-04-24 23:34:00,49.9,38.2,30.15,West,270,0.0,0.0,64,0.00,,---,0.15,VWS V14.01,2013-04-25 03:34:00,
2013-04-24 23:35:00,49.9,38.2,30.15,West,270,0.0,0.0,64,0.00,,---,0.15,VWS V14.01,2013-04-25 03:35:00,
2013-04-24 23:38:00,49.9,38.2,30.15,West,270,0.0,0.0,64,0.00,,---,0.15,VWS V14.01,2013-04-25 03:38:00,
2013-04-24 23:39:00,50.1,38.4,30.15,West,270,0.0,0.0,64,0.00,,---,0.15,VWS V14.01,2013-04-25 03:39:00,
2013-04-24 23:40:00,50.1,38.4,30.15,West,270,0.0,0.0,64,0.00,,---,0.15,VWS V14.01,2013-04-25 03:40:00,
2013-04-24 23:45:00,49.9,37.8,30.15,West,270,0.0,0.0,63,0.00,,---,0.15,VWS V14.01,2013-04-25 03:45:00,
2013-04-24 23:50:00,50.1,38.0,30.15,West,270,0.0,0.0,63,0.00,,---,0.15,VWS V14.01,2013-04-25 03:50:00,
2013-04-24 23:51:00,50.1,37.6,30.15,West,270,0.0,0.0,62,0.00,,---,0.15,VWS V14.01,2013-04-25 03:51:00,
2013-04-24 23:55:00,49.9,37.4,30.15,West,270,0.0,0.0,62,0.00,,---,0.15,VWS V14.01,2013-04-25 03:55:00,
2013-04-24 23:56:00,49.9,37.4,30.15,West,270,0.0,0.0,62,0.00,,---,0.15,VWS V14.01,2013-04-25 03:56:00,